KB0UOA Weather Reports


time (UTC)temp
C
wind
direction
speed
KPH
gust
KPH
rain 1hr
cm
rain 24hr
cm
rain mn
cm
humidity
%
barometer
mb
20260906201404 36 173 1.6 8.0 0.00 0.00 0.00 38 1015.7
20260906201304 36 175 1.6 8.0 0.00 0.00 0.00 37 1015.7
20260906201204 36 176 3.2 8.0 0.00 0.00 0.00 38 1015.7
20260906201104 36 179 3.2 8.0 0.00 0.00 0.00 37 1015.7
20260906201004 36 182 3.2 8.0 0.00 0.00 0.00 38 1015.7
20260906200904 36 186 3.2 8.0 0.00 0.00 0.00 37 1015.7
20260906200704 36 187 3.2 11.3 0.00 0.00 0.00 37 1015.8
20260906200504 36 193 4.8 14.5 0.00 0.00 0.00 37 1015.8
20260906200405 36 197 4.8 14.5 0.00 0.00 0.00 37 1015.8
20260906200305 36 202 4.8 14.5 0.00 0.00 0.00 37 1015.8
20260906200205 36 203 4.8 14.5 0.00 0.00 0.00 37 1015.8
20260906200105 36 204 4.8 14.5 0.00 0.00 0.00 36 1015.9
20260906200005 36 204 4.8 14.5 0.00 0.00 0.00 35 1015.8
20260906195905 36 206 4.8 14.5 0.00 0.00 0.00 36 1015.8
20260906195805 36 206 4.8 14.5 0.00 0.00 0.00 36 1015.9
20260906195705 36 210 4.8 14.5 0.00 0.00 0.00 35 1015.9
20260906195605 36 215 4.8 14.5 0.00 0.00 0.00 35 1015.9
20260906195404 36 214 4.8 14.5 0.00 0.00 0.00 36 1015.9
20260906195306 37 211 4.8 14.5 0.00 0.00 0.00 36 1015.9
20260906195204 37 208 4.8 14.5 0.00 0.00 0.00 36 1015.9
20260906195104 37 204 4.8 14.5 0.00 0.00 0.00 36 1015.9
20260906195004 37 204 4.8 14.5 0.00 0.00 0.00 36 1015.9
20260906194704 37 200 4.8 14.5 0.00 0.00 0.00 36 1015.9
20260906194604 37 194 4.8 14.5 0.00 0.00 0.00 36 1016.0
20260906194404 37 183 3.2 11.3 0.00 0.00 0.00 36 1016.0
20260906194304 37 175 3.2 9.7 0.00 0.00 0.00 36 1016.0
20260906194104 37 189 3.2 9.7 0.00 0.00 0.00 36 1016.0
20260906194004 38 185 3.2 8.0 0.00 0.00 0.00 36 1016.0
20260906193904 38 179 3.2 8.0 0.00 0.00 0.00 36 1016.1
20260906193804 38 181 3.2 8.0 0.00 0.00 0.00 35 1016.1
20260906193704 38 186 3.2 8.0 0.00 0.00 0.00 34 1016.0
20260906193604 38 182 3.2 8.0 0.00 0.00 0.00 35 1016.1
20260906193504 38 172 1.6 8.0 0.00 0.00 0.00 35 1016.1
20260906193404 38 172 1.6 8.0 0.00 0.00 0.00 35 1016.1
20260906193304 38 173 1.6 8.0 0.00 0.00 0.00 34 1016.1
20260906193204 38 196 1.6 6.4 0.00 0.00 0.00 35 1016.2
20260906193104 38 179 1.6 4.8 0.00 0.00 0.00 35 1016.2
20260906193004 38 179 1.6 4.8 0.00 0.00 0.00 35 1016.2
20260906192704 38 89 1.6 4.8 0.00 0.00 0.00 35 1016.2
20260906192604 38 91 1.6 4.8 0.00 0.00 0.00 35 1016.2
20260906192404 38 247 1.6 4.8 0.00 0.00 0.00 35 1016.2
20260906192204 38 188 1.6 3.2 0.00 0.00 0.00 36 1016.2
20260906192104 37 183 1.6 3.2 0.00 0.00 0.00 36 1016.2
20260906192004 37 192 1.6 8.0 0.00 0.00 0.00 36 1016.3
20260906191904 37 182 1.6 8.0 0.00 0.00 0.00 36 1016.3
20260906191804 37 171 1.6 8.0 0.00 0.00 0.00 37 1016.3
20260906191604 37 172 1.6 8.0 0.00 0.00 0.00 37 1016.4
20260906191504 37 171 1.6 8.0 0.00 0.00 0.00 37 1016.4
20260906191404 37 167 1.6 8.0 0.00 0.00 0.00 38 1016.5
20260906191304 37 162 1.6 8.0 0.00 0.00 0.00 37 1016.5
20260906191204 36 164 1.6 8.0 0.00 0.00 0.00 37 1016.5
20260906191104 37 165 1.6 8.0 0.00 0.00 0.00 37 1016.6
20260906191004 37 152 1.6 4.8 0.00 0.00 0.00 37 1016.6
20260906190904 37 155 0.0 4.8 0.00 0.00 0.00 37 1016.6
20260906190804 37 159 0.0 4.8 0.00 0.00 0.00 38 1016.6
20260906190704 37 167 1.6 3.2 0.00 0.00 0.00 37 1016.6
20260906190605 37 174 1.6 4.8 0.00 0.00 0.00 37 1016.6
20260906190504 37 175 1.6 6.4 0.00 0.00 0.00 36 1016.6
20260906190405 37 176 1.6 6.4 0.00 0.00 0.00 37 1016.6
20260906190305 37 192 1.6 6.4 0.00 0.00 0.00 37 1016.6
20260906190105 36 201 1.6 6.4 0.00 0.00 0.00 37 1016.6
20260906190005 36 201 1.6 6.4 0.00 0.00 0.00 37 1016.6
20260906185905 36 197 1.6 6.4 0.00 0.00 0.00 37 1016.6
20260906185804 36 198 3.2 8.0 0.00 0.00 0.00 37 1016.6
20260906185704 36 200 3.2 8.0 0.00 0.00 0.00 37 1016.6
20260906185604 36 206 3.2 8.0 0.00 0.00 0.00 38 1016.7
20260906185504 36 208 3.2 8.0 0.00 0.00 0.00 37 1016.6
20260906185306 36 199 1.6 8.0 0.00 0.00 0.00 37 1016.7
20260906185204 36 199 1.6 8.0 0.00 0.00 0.00 37 1016.7
20260906185104 37 199 1.6 8.0 0.00 0.00 0.00 36 1016.7
20260906185004 37 199 1.6 8.0 0.00 0.00 0.00 36 1016.8
20260906184904 37 203 1.6 8.0 0.00 0.00 0.00 36 1016.7
20260906184804 37 211 1.6 8.0 0.00 0.00 0.00 37 1016.7
20260906184704 37 238 1.6 8.0 0.00 0.00 0.00 36 1016.8
20260906184605 37 243 1.6 8.0 0.00 0.00 0.00 37 1016.8
20260906184505 37 259 1.6 4.8 0.00 0.00 0.00 38 1016.8
20260906184305 37 267 1.6 4.8 0.00 0.00 0.00 37 1016.8
20260906184205 37 271 1.6 4.8 0.00 0.00 0.00 38 1016.8
20260906184105 37 271 1.6 4.8 0.00 0.00 0.00 37 1016.8
20260906184005 36 271 1.6 4.8 0.00 0.00 0.00 37 1016.8
20260906183905 37 267 1.6 4.8 0.00 0.00 0.00 37 1016.8
20260906183805 37 264 0.0 4.8 0.00 0.00 0.00 37 1016.9
20260906183704 37 250 0.0 3.2 0.00 0.00 0.00 38 1016.9
20260906183604 36 249 0.0 3.2 0.00 0.00 0.00 38 1016.9
20260906183404 36 249 0.0 3.2 0.00 0.00 0.00 38 1017.0
20260906183304 36 248 1.6 4.8 0.00 0.00 0.00 39 1017.0
20260906183104 36 278 1.6 4.8 0.00 0.00 0.00 38 1017.0
20260906183005 36 294 1.6 6.4 0.00 0.00 0.00 38 1017.0
20260906182904 36 304 1.6 6.4 0.00 0.00 0.00 39 1017.1
20260906182805 36 321 3.2 6.4 0.00 0.00 0.00 38 1017.1
20260906182705 36 338 3.2 6.4 0.00 0.00 0.00 39 1017.1
20260906182605 36 341 3.2 6.4 0.00 0.00 0.00 39 1017.1
20260906182505 36 347 3.2 6.4 0.00 0.00 0.00 38 1017.2
20260906182404 36 356 1.6 6.4 0.00 0.00 0.00 38 1017.1
20260906182306 36 7 1.6 6.4 0.00 0.00 0.00 40 1017.2
20260906182204 36 33 1.6 6.4 0.00 0.00 0.00 38 1017.2
20260906182104 36 60 1.6 6.4 0.00 0.00 0.00 37 1017.2
20260906182004 36 81 1.6 6.4 0.00 0.00 0.00 37 1017.2
20260906181904 36 84 1.6 6.4 0.00 0.00 0.00 37 1017.2
20260906181804 36 91 1.6 6.4 0.00 0.00 0.00 37 1017.3
20260906181604 36 95 3.2 8.0 0.00 0.00 0.00 38 1017.4
20260906181504 36 93 3.2 8.0 0.00 0.00 0.00 38 1017.4
20260906181404 36 95 3.2 8.0 0.00 0.00 0.00 38 1017.5
20260906181304 36 98 3.2 8.0 0.00 0.00 0.00 38 1017.5
20260906181204 36 100 4.8 8.0 0.00 0.00 0.00 38 1017.5
20260906181104 36 98 4.8 12.9 0.00 0.00 0.00 38 1017.5
20260906181005 36 96 4.8 12.9 0.00 0.00 0.00 38 1017.5
20260906180905 37 96 4.8 12.9 0.00 0.00 0.00 38 1017.5
20260906180804 37 96 4.8 12.9 0.00 0.00 0.00 38 1017.5
20260906180704 37 100 4.8 12.9 0.00 0.00 0.00 38 1017.5
20260906180605 37 100 4.8 14.5 0.00 0.00 0.00 38 1017.5
20260906180504 37 92 4.8 14.5 0.00 0.00 0.00 38 1017.5
20260906180405 37 90 4.8 14.5 0.00 0.00 0.00 38 1017.5
20260906180104 37 85 3.2 14.5 0.00 0.00 0.00 37 1017.7
20260906180005 37 86 3.2 14.5 0.00 0.00 0.00 38 1017.7
20260906175904 37 90 3.2 14.5 0.00 0.00 0.00 38 1017.8
20260906175704 37 99 1.6 14.5 0.00 0.00 0.00 37 1017.7
20260906175604 37 102 1.6 12.9 0.00 0.00 0.00 38 1017.8
20260906175505 37 159 1.6 6.4 0.00 0.00 0.00 38 1017.9
20260906175404 37 164 1.6 6.4 0.00 0.00 0.00 39 1017.9
20260906175306 37 152 1.6 4.8 0.00 0.00 0.00 40 1017.9
20260906175204 36 150 1.6 4.8 0.00 0.00 0.00 39 1017.8
20260906175104 36 150 1.6 4.8 0.00 0.00 0.00 39 1017.9
20260906175004 36 140 1.6 4.8 0.00 0.00 0.00 39 1017.9
20260906174904 36 133 1.6 4.8 0.00 0.00 0.00 39 1017.9
20260906174804 36 93 1.6 4.8 0.00 0.00 0.00 39 1017.9
20260906174704 36 63 1.6 4.8 0.00 0.00 0.00 39 1018.0
20260906174504 36 52 1.6 4.8 0.00 0.00 0.00 39 1017.9
20260906174404 36 38 1.6 4.8 0.00 0.00 0.00 39 1018.0
20260906174304 36 41 3.2 4.8 0.00 0.00 0.00 39 1018.0
20260906174204 36 48 3.2 6.4 0.00 0.00 0.00 38 1018.0
20260906174004 36 90 3.2 8.0 0.00 0.00 0.00 38 1018.0
20260906173905 36 101 3.2 8.0 0.00 0.00 0.00 38 1018.1
20260906173705 36 167 1.6 8.0 0.00 0.00 0.00 39 1018.1
20260906173504 36 182 1.6 8.0 0.00 0.00 0.00 38 1018.1
20260906173404 36 177 1.6 8.0 0.00 0.00 0.00 38 1018.2
20260906173304 36 169 1.6 8.0 0.00 0.00 0.00 38 1018.1
20260906173204 36 164 1.6 8.0 0.00 0.00 0.00 38 1018.2
20260906173104 36 168 1.6 8.0 0.00 0.00 0.00 39 1018.2
20260906173004 36 168 1.6 8.0 0.00 0.00 0.00 38 1018.2
20260906172904 36 162 1.6 8.0 0.00 0.00 0.00 38 1018.2
20260906172804 36 159 1.6 8.0 0.00 0.00 0.00 38 1018.2
20260906172704 36 159 1.6 8.0 0.00 0.00 0.00 38 1018.3
20260906172604 36 151 1.6 8.0 0.00 0.00 0.00 38 1018.3
20260906172505 36 134 1.6 8.0 0.00 0.00 0.00 38 1018.3
20260906172405 36 121 3.2 8.0 0.00 0.00 0.00 38 1018.3
20260906172306 36 115 3.2 8.0 0.00 0.00 0.00 38 1018.4
20260906172204 36 109 3.2 8.0 0.00 0.00 0.00 38 1018.4
20260906172004 36 101 3.2 6.4 0.00 0.00 0.00 38 1018.4
20260906171904 36 109 3.2 6.4 0.00 0.00 0.00 39 1018.4
20260906171804 36 113 3.2 6.4 0.00 0.00 0.00 39 1018.4
20260906171704 36 116 3.2 6.4 0.00 0.00 0.00 39 1018.4
20260906171504 36 127 1.6 6.4 0.00 0.00 0.00 39 1018.4
20260906171404 36 129 1.6 6.4 0.00 0.00 0.00 38 1018.5
20260906171205 36 134 1.6 6.4 0.00 0.00 0.00 39 1018.5
20260906170905 36 107 1.6 8.0 0.00 0.00 0.00 39 1018.6
20260906170804 36 100 1.6 8.0 0.00 0.00 0.00 39 1018.6
20260906170704 36 93 1.6 8.0 0.00 0.00 0.00 39 1018.6
20260906170604 36 89 1.6 8.0 0.00 0.00 0.00 40 1018.6
20260906170504 36 86 3.2 8.0 0.00 0.00 0.00 40 1018.6
20260906170404 36 90 3.2 8.0 0.00 0.00 0.00 39 1018.6
20260906170304 36 93 3.2 8.0 0.00 0.00 0.00 38 1018.6
20260906170204 36 93 3.2 9.7 0.00 0.00 0.00 38 1018.6
20260906170106 36 95 3.2 9.7 0.00 0.00 0.00 38 1018.6
20260906170004 36 98 3.2 9.7 0.00 0.00 0.00 38 1018.6
20260906165904 36 101 3.2 9.7 0.00 0.00 0.00 39 1018.6
20260906165804 36 100 3.2 9.7 0.00 0.00 0.00 39 1018.6
20260906165704 36 102 3.2 9.7 0.00 0.00 0.00 38 1018.6
20260906165604 36 101 3.2 9.7 0.00 0.00 0.00 38 1018.6
20260906165504 36 100 3.2 9.7 0.00 0.00 0.00 38 1018.7
20260906165306 37 94 3.2 9.7 0.00 0.00 0.00 37 1018.7
20260906165204 37 92 3.2 8.0 0.00 0.00 0.00 38 1018.7
20260906165104 37 93 1.6 6.4 0.00 0.00 0.00 37 1018.7
20260906165004 37 92 1.6 6.4 0.00 0.00 0.00 38 1018.7
20260906164904 37 84 1.6 4.8 0.00 0.00 0.00 38 1018.8
20260906164804 37 90 1.6 4.8 0.00 0.00 0.00 37 1018.7
20260906164604 37 86 1.6 4.8 0.00 0.00 0.00 38 1018.7
20260906164504 37 94 0.0 4.8 0.00 0.00 0.00 38 1018.7
20260906164404 37 104 0.0 4.8 0.00 0.00 0.00 37 1018.7
20260906164205 37 177 0.0 4.8 0.00 0.00 0.00 39 1018.8
20260906164104 36 156 1.6 4.8 0.00 0.00 0.00 39 1018.8
20260906164004 36 170 1.6 6.4 0.00 0.00 0.00 39 1018.8
20260906163904 36 182 1.6 6.4 0.00 0.00 0.00 39 1018.8
20260906163805 36 175 1.6 6.4 0.00 0.00 0.00 40 1018.8
20260906163704 36 171 1.6 6.4 0.00 0.00 0.00 40 1018.8
20260906163504 36 173 3.2 6.4 0.00 0.00 0.00 41 1018.9
20260906163304 36 61 3.2 6.4 0.00 0.00 0.00 41 1018.9
20260906163104 36 14 1.6 6.4 0.00 0.00 0.00 40 1018.9
20260906163004 36 18 1.6 6.4 0.00 0.00 0.00 40 1018.9
20260906162904 36 16 1.6 6.4 0.00 0.00 0.00 40 1018.9
20260906162804 36 355 1.6 6.4 0.00 0.00 0.00 41 1018.9
20260906162704 36 351 1.6 6.4 0.00 0.00 0.00 41 1018.9
20260906162604 35 3 1.6 6.4 0.00 0.00 0.00 40 1018.9
20260906162504 35 188 1.6 6.4 0.00 0.00 0.00 41 1018.9
20260906162306 35 189 1.6 6.4 0.00 0.00 0.00 42 1019.0
20260906162204 35 189 1.6 6.4 0.00 0.00 0.00 41 1018.9
20260906162105 35 185 1.6 6.4 0.00 0.00 0.00 41 1018.9
20260906162005 35 176 1.6 6.4 0.00 0.00 0.00 40 1018.9
20260906161804 35 161 1.6 6.4 0.00 0.00 0.00 41 1018.9
20260906161704 35 168 1.6 9.7 0.00 0.00 0.00 41 1018.9
20260906161604 35 163 1.6 9.7 0.00 0.00 0.00 43 1018.9
20260906161504 35 162 1.6 9.7 0.00 0.00 0.00 42 1018.9
20260906161404 35 156 1.6 9.7 0.00 0.00 0.00 42 1018.9
20260906161304 35 154 1.6 9.7 0.00 0.00 0.00 41 1018.9
20260906161204 35 155 1.6 9.7 0.00 0.00 0.00 41 1018.8
20260906161104 35 155 1.6 9.7 0.00 0.00 0.00 41 1018.9
20260906161004 35 157 1.6 9.7 0.00 0.00 0.00 42 1018.9
20260906160904 35 164 1.6 9.7 0.00 0.00 0.00 41 1018.9
20260906160704 35 90 1.6 6.4 0.00 0.00 0.00 42 1018.8
20260906160604 35 185 1.6 6.4 0.00 0.00 0.00 42 1018.9
20260906160504 35 184 1.6 6.4 0.00 0.00 0.00 42 1018.8
20260906160404 35 185 1.6 6.4 0.00 0.00 0.00 43 1018.8
20260906160304 35 185 1.6 6.4 0.00 0.00 0.00 43 1018.9
20260906160204 35 185 1.6 6.4 0.00 0.00 0.00 43 1018.9
20260906160104 35 183 1.6 6.4 0.00 0.00 0.00 43 1018.9
20260906160005 35 183 1.6 6.4 0.00 0.00 0.00 43 1018.7
20260906155905 35 184 1.6 6.4 0.00 0.00 0.00 43 1018.7
20260906155704 35 177 1.6 6.4 0.00 0.00 0.00 43 1018.7
20260906155604 35 170 1.6 6.4 0.00 0.00 0.00 43 1018.7
20260906155504 35 168 1.6 6.4 0.00 0.00 0.00 42 1018.7
20260906155404 35 164 1.6 6.4 0.00 0.00 0.00 43 1018.7
20260906155306 35 163 1.6 6.4 0.00 0.00 0.00 43 1018.7
20260906155204 35 164 1.6 6.4 0.00 0.00 0.00 43 1018.7
20260906155104 35 163 1.6 6.4 0.00 0.00 0.00 44 1018.7
20260906155004 35 163 1.6 6.4 0.00 0.00 0.00 44 1018.7
20260906154904 35 163 1.6 6.4 0.00 0.00 0.00 43 1018.6
20260906154804 35 162 1.6 6.4 0.00 0.00 0.00 43 1018.6
20260906154704 35 159 1.6 6.4 0.00 0.00 0.00 42 1018.6
20260906154604 35 158 0.0 6.4 0.00 0.00 0.00 43 1018.7
20260906154405 35 164 0.0 4.8 0.00 0.00 0.00 43 1018.7
20260906154304 35 165 0.0 4.8 0.00 0.00 0.00 43 1018.7
20260906154204 35 144 0.0 3.2 0.00 0.00 0.00 42 1018.7
20260906154104 35 139 0.0 3.2 0.00 0.00 0.00 43 1018.7
20260906154004 35 143 0.0 4.8 0.00 0.00 0.00 44 1018.7
20260906153904 35 140 0.0 4.8 0.00 0.00 0.00 45 1018.6
20260906153804 35 133 0.0 4.8 0.00 0.00 0.00 45 1018.6
20260906153704 35 128 0.0 4.8 0.00 0.00 0.00 44 1018.6
20260906153604 35 125 0.0 4.8 0.00 0.00 0.00 45 1018.6
20260906153504 35 123 0.0 4.8 0.00 0.00 0.00 45 1018.6
20260906153404 35 121 0.0 4.8 0.00 0.00 0.00 46 1018.5
20260906153204 35 118 0.0 4.8 0.00 0.00 0.00 45 1018.5
20260906153105 35 114 0.0 4.8 0.00 0.00 0.00 46 1018.5
20260906153005 35 101 0.0 3.2 0.00 0.00 0.00 47 1018.5
20260906152704 34 99 0.0 1.6 0.00 0.00 0.00 46 1018.5
20260906152504 34 62 0.0 3.2 0.00 0.00 0.00 47 1018.5
20260906152404 34 12 1.6 4.8 0.00 0.00 0.00 47 1018.5
20260906152307 34 356 1.6 4.8 0.00 0.00 0.00 48 1018.5
20260906152104 33 330 1.6 4.8 0.00 0.00 0.00 48 1018.4
20260906152004 33 331 1.6 4.8 0.00 0.00 0.00 48 1018.5
20260906151905 33 329 1.6 4.8 0.00 0.00 0.00 49 1018.5
20260906151805 33 327 1.6 4.8 0.00 0.00 0.00 49 1018.5
20260906151704 33 327 1.6 4.8 0.00 0.00 0.00 48 1018.5
20260906151604 33 302 1.6 4.8 0.00 0.00 0.00 48 1018.5
20260906151404 33 237 0.0 4.8 0.00 0.00 0.00 49 1018.5
20260906151304 33 203 0.0 4.8 0.00 0.00 0.00 49 1018.5
20260906151204 33 179 0.0 4.8 0.00 0.00 0.00 50 1018.5
20260906151104 33 160 0.0 3.2 0.00 0.00 0.00 50 1018.5
20260906151004 33 161 0.0 3.2 0.00 0.00 0.00 50 1018.4
20260906150904 33 161 0.0 3.2 0.00 0.00 0.00 50 1018.5
20260906150804 32 159 0.0 4.8 0.00 0.00 0.00 50 1018.5
20260906150704 32 161 1.6 4.8 0.00 0.00 0.00 51 1018.5
20260906150604 32 161 1.6 4.8 0.00 0.00 0.00 51 1018.5
20260906150305 32 156 1.6 4.8 0.00 0.00 0.00 51 1018.4
20260906150204 32 164 1.6 4.8 0.00 0.00 0.00 51 1018.5
20260906150105 32 165 1.6 4.8 0.00 0.00 0.00 51 1018.5
20260906150005 32 165 1.6 4.8 0.00 0.00 0.00 51 1018.5
20260906145904 32 164 1.6 4.8 0.00 0.00 0.00 50 1018.5
20260906145805 32 166 1.6 4.8 0.00 0.00 0.00 50 1018.5
20260906145705 32 169 1.6 4.8 0.00 0.00 0.00 50 1018.5
20260906145604 32 172 1.6 4.8 0.00 0.00 0.00 50 1018.5
20260906145504 32 173 0.0 4.8 0.00 0.00 0.00 50 1018.5
20260906145404 32 179 0.0 4.8 0.00 0.00 0.00 49 1018.5
20260906145306 32 192 0.0 4.8 0.00 0.00 0.00 49 1018.6
20260906145204 32 157 0.0 3.2 0.00 0.00 0.00 50 1018.5
20260906145104 32 154 0.0 3.2 0.00 0.00 0.00 50 1018.5
20260906145004 32 154 0.0 3.2 0.00 0.00 0.00 50 1018.5
20260906144804 32 151 0.0 1.6 0.00 0.00 0.00 52 1018.5
20260906144604 32 151 0.0 1.6 0.00 0.00 0.00 52 1018.5
20260906144504 32 151 0.0 1.6 0.00 0.00 0.00 53 1018.5
20260906144304 32 151 0.0 1.6 0.00 0.00 0.00 54 1018.5
20260906144204 31 152 0.0 1.6 0.00 0.00 0.00 55 1018.5
20260906144104 31 152 0.0 3.2 0.00 0.00 0.00 56 1018.5
20260906144004 31 152 0.0 3.2 0.00 0.00 0.00 56 1018.5
20260906143904 31 152 0.0 3.2 0.00 0.00 0.00 56 1018.5
20260906143704 31 152 0.0 3.2 0.00 0.00 0.00 57 1018.5
20260906143604 31 153 0.0 3.2 0.00 0.00 0.00 57 1018.5
20260906143504 31 153 0.0 3.2 0.00 0.00 0.00 57 1018.5
20260906143304 30 153 0.0 3.2 0.00 0.00 0.00 57 1018.5
20260906143204 30 153 0.0 3.2 0.00 0.00 0.00 57 1018.5
20260906143104 30 153 0.0 3.2 0.00 0.00 0.00 57 1018.5
20260906143004 30 153 0.0 3.2 0.00 0.00 0.00 58 1018.5
20260906142904 30 153 0.0 3.2 0.00 0.00 0.00 58 1018.6
20260906142804 30 153 0.0 3.2 0.00 0.00 0.00 58 1018.6
20260906142704 30 153 0.0 3.2 0.00 0.00 0.00 58 1018.6
20260906142604 30 153 0.0 3.2 0.00 0.00 0.00 59 1018.5
20260906142505 30 153 0.0 3.2 0.00 0.00 0.00 59 1018.6
20260906142405 30 153 0.0 3.2 0.00 0.00 0.00 59 1018.5
20260906142306 30 153 0.0 3.2 0.00 0.00 0.00 59 1018.6
20260906142205 30 153 1.6 3.2 0.00 0.00 0.00 59 1018.6
20260906142004 30 153 1.6 3.2 0.00 0.00 0.00 59 1018.6
20260906141904 30 153 1.6 3.2 0.00 0.00 0.00 59 1018.6
20260906141804 30 153 1.6 3.2 0.00 0.00 0.00 60 1018.6
20260906141704 30 153 1.6 3.2 0.00 0.00 0.00 59 1018.6
20260906141604 30 153 1.6 3.2 0.00 0.00 0.00 59 1018.6
20260906141504 30 153 1.6 3.2 0.00 0.00 0.00 60 1018.6
20260906141404 30 153 0.0 3.2 0.00 0.00 0.00 59 1018.6
20260906141304 30 153 0.0 3.2 0.00 0.00 0.00 60 1018.6
20260906141204 30 153 0.0 3.2 0.00 0.00 0.00 60 1018.6
20260906141104 30 153 0.0 3.2 0.00 0.00 0.00 60 1018.6
20260906141004 29 153 0.0 3.2 0.00 0.00 0.00 60 1018.6
20260906140805 29 152 1.6 3.2 0.00 0.00 0.00 60 1018.6
20260906140705 29 151 1.6 3.2 0.00 0.00 0.00 60 1018.6
20260906140604 29 150 1.6 3.2 0.00 0.00 0.00 61 1018.6
20260906140504 29 150 1.6 3.2 0.00 0.00 0.00 60 1018.7
20260906140404 29 149 1.6 3.2 0.00 0.00 0.00 60 1018.6
20260906140304 29 149 0.0 3.2 0.00 0.00 0.00 60 1018.7
20260906140204 29 149 0.0 3.2 0.00 0.00 0.00 60 1018.7
20260906140104 29 148 0.0 3.2 0.00 0.00 0.00 60 1018.6
20260906140004 29 148 0.0 3.2 0.00 0.00 0.00 61 1018.7
20260906135904 29 148 0.0 3.2 0.00 0.00 0.00 60 1018.6
20260906135804 29 147 0.0 3.2 0.00 0.00 0.00 60 1018.7
20260906135605 30 146 0.0 3.2 0.00 0.00 0.00 60 1018.7
20260906135306 29 146 0.0 1.6 0.00 0.00 0.00 61 1018.7
20260906135204 29 145 0.0 1.6 0.00 0.00 0.00 61 1018.6
20260906135104 29 145 0.0 1.6 0.00 0.00 0.00 62 1018.7
20260906135004 29 145 0.0 1.6 0.00 0.00 0.00 62 1018.7
20260906134904 28 145 0.0 1.6 0.00 0.00 0.00 62 1018.6
20260906134804 28 145 0.0 1.6 0.00 0.00 0.00 63 1018.6
20260906134704 28 145 0.0 1.6 0.00 0.00 0.00 63 1018.6
20260906134504 28 145 0.0 1.6 0.00 0.00 0.00 62 1018.5
20260906134404 28 145 0.0 1.6 0.00 0.00 0.00 61 1018.6
20260906134304 28 146 0.0 1.6 0.00 0.00 0.00 61 1018.6
20260906134204 28 146 0.0 1.6 0.00 0.00 0.00 62 1018.7
20260906134104 29 146 0.0 1.6 0.00 0.00 0.00 61 1018.7
20260906134004 29 146 0.0 1.6 0.00 0.00 0.00 62 1018.7
20260906133904 29 146 0.0 1.6 0.00 0.00 0.00 61 1018.7
20260906133804 29 146 0.0 1.6 0.00 0.00 0.00 61 1018.6
20260906133704 29 146 0.0 1.6 0.00 0.00 0.00 61 1018.6
20260906133604 29 146 0.0 1.6 0.00 0.00 0.00 61 1018.6
20260906133504 29 0 0.0 0.0 0.00 0.00 0.00 61 1018.6
20260906133405 29 0 0.0 0.0 0.00 0.00 0.00 63 1018.5
20260906133304 29 0 0.0 0.0 0.00 0.00 0.00 63 1018.5
20260906133104 29 0 0.0 0.0 0.00 0.00 0.00 63 1018.5
20260906133004 28 0 0.0 0.0 0.00 0.00 0.00 63 1018.5
20260906132805 28 0 0.0 0.0 0.00 0.00 0.00 64 1018.4
20260906132704 28 0 0.0 0.0 0.00 0.00 0.00 65 1018.4
20260906132604 28 0 0.0 0.0 0.00 0.00 0.00 66 1018.4
20260906132504 28 0 0.0 0.0 0.00 0.00 0.00 66 1018.4
20260906132404 28 0 0.0 0.0 0.00 0.00 0.00 66 1018.4
20260906132306 28 0 0.0 0.0 0.00 0.00 0.00 66 1018.3
20260906132204 28 0 0.0 0.0 0.00 0.00 0.00 68 1018.3
20260906132104 27 0 0.0 0.0 0.00 0.00 0.00 68 1018.3
20260906132004 27 0 0.0 0.0 0.00 0.00 0.00 69 1018.3
20260906131605 27 0 0.0 0.0 0.00 0.00 0.00 72 1018.2
20260906131505 27 0 0.0 0.0 0.00 0.00 0.00 72 1018.3
20260906131404 27 0 0.0 0.0 0.00 0.00 0.00 72 1018.2
20260906131304 26 0 0.0 0.0 0.00 0.00 0.00 71 1018.2
20260906131104 26 0 0.0 0.0 0.00 0.00 0.00 72 1018.2
20260906131004 26 0 0.0 0.0 0.00 0.00 0.00 71 1018.2
20260906130805 26 0 0.0 0.0 0.00 0.00 0.00 72 1018.2
20260906130705 26 0 0.0 0.0 0.00 0.00 0.00 73 1018.2
20260906130604 26 0 0.0 0.0 0.00 0.00 0.00 74 1018.1
20260906130504 26 0 0.0 0.0 0.00 0.00 0.00 75 1018.1
20260906130404 26 0 0.0 0.0 0.00 0.00 0.00 76 1018.1
20260906130304 25 0 0.0 0.0 0.00 0.00 0.00 76 1018.1
20260906130204 25 0 0.0 0.0 0.00 0.00 0.00 76 1018.1
20260906130104 25 0 0.0 0.0 0.00 0.00 0.00 76 1018.1
20260906130004 25 0 0.0 0.0 0.00 0.00 0.00 76 1018.1
20260906125904 25 0 0.0 0.0 0.00 0.00 0.00 76 1018.0
20260906125804 25 0 0.0 0.0 0.00 0.00 0.00 76 1018.1
20260906125704 25 0 0.0 0.0 0.00 0.00 0.00 77 1018.1
20260906125605 25 0 0.0 0.0 0.00 0.00 0.00 77 1018.0
20260906125404 24 0 0.0 0.0 0.00 0.00 0.00 77 1017.9
20260906125204 24 0 0.0 0.0 0.00 0.00 0.00 78 1017.9
20260906125104 24 0 0.0 0.0 0.00 0.00 0.00 78 1017.9
20260906125005 24 0 0.0 0.0 0.00 0.00 0.00 79 1017.9
20260906124804 23 0 0.0 0.0 0.00 0.00 0.00 79 1017.8
20260906124704 23 0 0.0 0.0 0.00 0.00 0.00 79 1017.7
20260906124604 23 0 0.0 0.0 0.00 0.00 0.00 79 1017.8
20260906124504 23 0 0.0 0.0 0.00 0.00 0.00 80 1017.7
20260906124404 23 0 0.0 0.0 0.00 0.00 0.00 80 1017.7
20260906124304 23 0 0.0 0.0 0.00 0.00 0.00 80 1017.7
20260906124204 23 0 0.0 0.0 0.00 0.00 0.00 80 1017.7
20260906124104 23 0 0.0 0.0 0.00 0.00 0.00 80 1017.6
20260906124005 23 0 0.0 0.0 0.00 0.00 0.00 80 1017.6
20260906123904 23 0 0.0 0.0 0.00 0.00 0.00 80 1017.6
20260906123804 23 0 0.0 0.0 0.00 0.00 0.00 80 1017.6
20260906123704 23 0 0.0 0.0 0.00 0.00 0.00 80 1017.6
20260906123604 23 0 0.0 0.0 0.00 0.00 0.00 80 1017.6
20260906123504 23 0 0.0 0.0 0.00 0.00 0.00 80 1017.6
20260906123404 23 0 0.0 0.0 0.00 0.00 0.00 80 1017.5
20260906123204 23 0 0.0 0.0 0.00 0.00 0.00 81 1017.5
20260906123104 23 0 0.0 0.0 0.00 0.00 0.00 81 1017.5
20260906123004 23 0 0.0 0.0 0.00 0.00 0.00 80 1017.5
20260906122804 23 0 0.0 0.0 0.00 0.00 0.00 81 1017.4
20260906122604 23 0 0.0 0.0 0.00 0.00 0.00 81 1017.5
20260906122504 23 0 0.0 0.0 0.00 0.00 0.00 81 1017.5
20260906122404 23 0 0.0 0.0 0.00 0.00 0.00 81 1017.4
20260906122306 23 0 0.0 0.0 0.00 0.00 0.00 81 1017.4
20260906122204 23 0 0.0 0.0 0.00 0.00 0.00 81 1017.4
20260906122104 23 0 0.0 0.0 0.00 0.00 0.00 81 1017.3
20260906122004 23 0 0.0 0.0 0.00 0.00 0.00 81 1017.4
20260906121904 23 0 0.0 0.0 0.00 0.00 0.00 81 1017.4
20260906121804 23 0 0.0 0.0 0.00 0.00 0.00 81 1017.3
20260906121704 23 0 0.0 0.0 0.00 0.00 0.00 81 1017.3
20260906121504 23 0 0.0 0.0 0.00 0.00 0.00 82 1017.3
20260906121404 23 0 0.0 0.0 0.00 0.00 0.00 82 1017.2
20260906121304 22 0 0.0 0.0 0.00 0.00 0.00 82 1017.2
20260906121204 22 0 0.0 0.0 0.00 0.00 0.00 82 1017.2
20260906121004 22 0 0.0 0.0 0.00 0.00 0.00 83 1017.2
20260906120904 22 0 0.0 0.0 0.00 0.00 0.00 83 1017.2
20260906120804 22 0 0.0 0.0 0.00 0.00 0.00 83 1017.2
20260906120504 22 0 0.0 0.0 0.00 0.00 0.00 83 1017.2
20260906120404 22 0 0.0 0.0 0.00 0.00 0.00 84 1017.2
20260906120304 22 0 0.0 0.0 0.00 0.00 0.00 84 1017.2
20260906120204 22 0 0.0 0.0 0.00 0.00 0.00 84 1017.2
20260906120005 22 0 0.0 0.0 0.00 0.00 0.00 85 1017.2
20260906115904 22 0 0.0 0.0 0.00 0.00 0.00 85 1017.1
20260906115804 22 0 0.0 0.0 0.00 0.00 0.00 85 1017.2
20260906115704 22 0 0.0 0.0 0.00 0.00 0.00 85 1017.2
20260906115604 22 0 0.0 0.0 0.00 0.00 0.00 85 1017.1
20260906115504 22 0 0.0 0.0 0.00 0.00 0.00 85 1017.1
20260906115404 22 0 0.0 0.0 0.00 0.00 0.00 86 1017.2
20260906115306 22 0 0.0 0.0 0.00 0.00 0.00 86 1017.2
20260906115204 22 0 0.0 0.0 0.00 0.00 0.00 86 1017.2
20260906115104 22 0 0.0 0.0 0.00 0.00 0.00 85 1017.2
20260906115005 22 0 0.0 0.0 0.00 0.00 0.00 85 1017.2
20260906114904 22 0 0.0 0.0 0.00 0.00 0.00 85 1017.2
20260906114804 22 0 0.0 0.0 0.00 0.00 0.00 85 1017.2
20260906114704 22 0 0.0 0.0 0.00 0.00 0.00 85 1017.2
20260906114604 22 0 0.0 0.0 0.00 0.00 0.00 85 1017.2
20260906114504 22 0 0.0 0.0 0.00 0.00 0.00 85 1017.1
20260906114404 22 0 0.0 0.0 0.00 0.00 0.00 85 1017.1
20260906114304 22 0 0.0 0.0 0.00 0.00 0.00 85 1017.0
20260906114204 22 0 0.0 0.0 0.00 0.00 0.00 85 1017.0
20260906114105 22 0 0.0 0.0 0.00 0.00 0.00 84 1017.0
20260906114005 22 0 0.0 0.0 0.00 0.00 0.00 84 1017.0
20260906113905 22 0 0.0 0.0 0.00 0.00 0.00 85 1017.0
20260906113804 22 0 0.0 0.0 0.00 0.00 0.00 85 1017.0
20260906113604 22 0 0.0 0.0 0.00 0.00 0.00 85 1017.0
20260906113504 22 0 0.0 0.0 0.00 0.00 0.00 85 1017.0
20260906113404 22 0 0.0 0.0 0.00 0.00 0.00 85 1017.0
20260906113304 22 0 0.0 0.0 0.00 0.00 0.00 85 1017.0
20260906113204 22 0 0.0 0.0 0.00 0.00 0.00 85 1017.0
20260906113104 22 0 0.0 0.0 0.00 0.00 0.00 85 1017.0
20260906113004 23 0 0.0 0.0 0.00 0.00 0.00 85 1017.0
20260906112904 23 0 0.0 0.0 0.00 0.00 0.00 85 1016.9
20260906112804 23 0 0.0 0.0 0.00 0.00 0.00 85 1017.0
20260906112704 23 0 0.0 0.0 0.00 0.00 0.00 85 1016.9
20260906112604 23 0 0.0 0.0 0.00 0.00 0.00 84 1016.9
20260906112505 23 0 0.0 0.0 0.00 0.00 0.00 84 1016.9
20260906112404 23 0 0.0 0.0 0.00 0.00 0.00 84 1016.9
20260906112306 23 0 0.0 0.0 0.00 0.00 0.00 84 1016.8
20260906112204 23 0 0.0 0.0 0.00 0.00 0.00 84 1016.8
20260906112004 23 0 0.0 0.0 0.00 0.00 0.00 84 1016.8
20260906111904 23 0 0.0 0.0 0.00 0.00 0.00 84 1016.8
20260906111804 23 0 0.0 0.0 0.00 0.00 0.00 83 1016.8
20260906111704 23 0 0.0 0.0 0.00 0.00 0.00 83 1016.8
20260906111605 23 0 0.0 0.0 0.00 0.00 0.00 83 1016.8
20260906111505 23 0 0.0 0.0 0.00 0.00 0.00 84 1016.8
20260906111304 23 0 0.0 0.0 0.00 0.00 0.00 83 1016.8
20260906111204 23 0 0.0 0.0 0.00 0.00 0.00 83 1016.9
20260906111104 23 0 0.0 0.0 0.00 0.00 0.00 83 1016.8
20260906111004 23 0 0.0 0.0 0.00 0.00 0.00 83 1016.8
20260906110904 23 0 0.0 0.0 0.00 0.00 0.00 83 1016.8
20260906110804 23 0 0.0 0.0 0.00 0.00 0.00 83 1016.8
20260906110604 23 0 0.0 0.0 0.00 0.00 0.00 83 1016.8
20260906110504 23 0 0.0 0.0 0.00 0.00 0.00 83 1016.8
20260906110404 23 0 0.0 0.0 0.00 0.00 0.00 83 1016.8
20260906110304 23 0 0.0 0.0 0.00 0.00 0.00 83 1016.8
20260906110204 23 0 0.0 0.0 0.00 0.00 0.00 82 1016.8
20260906105904 23 0 0.0 0.0 0.00 0.00 0.00 81 1016.8
20260906105804 23 0 0.0 0.0 0.00 0.00 0.00 80 1016.7
20260906105704 23 0 0.0 0.0 0.00 0.00 0.00 80 1016.8
20260906105604 23 0 0.0 0.0 0.00 0.00 0.00 79 1016.7
20260906105504 23 0 0.0 0.0 0.00 0.00 0.00 79 1016.8
20260906105404 23 0 0.0 0.0 0.00 0.00 0.00 79 1016.7
20260906105306 23 0 0.0 0.0 0.00 0.00 0.00 79 1016.7
20260906105204 23 0 0.0 0.0 0.00 0.00 0.00 79 1016.7
20260906105104 23 0 0.0 0.0 0.00 0.00 0.00 79 1016.7
20260906105004 23 0 0.0 0.0 0.00 0.00 0.00 78 1016.7
20260906104904 23 0 0.0 0.0 0.00 0.00 0.00 78 1016.7
20260906104804 23 0 0.0 0.0 0.00 0.00 0.00 78 1016.7
20260906104605 23 0 0.0 0.0 0.00 0.00 0.00 79 1016.7
20260906104505 23 0 0.0 0.0 0.00 0.00 0.00 79 1016.7
20260906104304 23 0 0.0 0.0 0.00 0.00 0.00 79 1016.7
20260906104204 23 0 0.0 0.0 0.00 0.00 0.00 79 1016.7
20260906104104 23 0 0.0 0.0 0.00 0.00 0.00 79 1016.7
20260906104004 23 0 0.0 0.0 0.00 0.00 0.00 79 1016.7
20260906103905 23 0 0.0 0.0 0.00 0.00 0.00 79 1016.7
20260906103805 23 0 0.0 0.0 0.00 0.00 0.00 77 1016.7
20260906103705 23 0 0.0 0.0 0.00 0.00 0.00 77 1016.7
20260906103605 23 0 0.0 0.0 0.00 0.00 0.00 77 1016.7
20260906103304 23 0 0.0 0.0 0.00 0.00 0.00 76 1016.7
20260906103204 23 0 0.0 0.0 0.00 0.00 0.00 76 1016.7
20260906103105 23 0 0.0 0.0 0.00 0.00 0.00 76 1016.7
20260906103005 23 0 0.0 0.0 0.00 0.00 0.00 76 1016.7
20260906102905 23 0 0.0 0.0 0.00 0.00 0.00 76 1016.7
20260906102805 23 0 0.0 0.0 0.00 0.00 0.00 76 1016.7
20260906102705 23 0 0.0 0.0 0.00 0.00 0.00 76 1016.7
20260906102604 23 0 0.0 0.0 0.00 0.00 0.00 76 1016.7
20260906102504 24 0 0.0 0.0 0.00 0.00 0.00 76 1016.7
20260906102306 24 0 0.0 0.0 0.00 0.00 0.00 75 1016.7
20260906102204 24 0 0.0 0.0 0.00 0.00 0.00 75 1016.7
20260906102005 24 0 0.0 0.0 0.00 0.00 0.00 76 1016.7
20260906101805 24 0 0.0 0.0 0.00 0.00 0.00 76 1016.7
20260906101704 24 0 0.0 0.0 0.00 0.00 0.00 76 1016.7
20260906101604 24 0 0.0 0.0 0.00 0.00 0.00 76 1016.7
20260906101504 24 0 0.0 0.0 0.00 0.00 0.00 76 1016.7
20260906101404 24 0 0.0 0.0 0.00 0.00 0.00 76 1016.7
20260906101305 24 0 0.0 0.0 0.00 0.00 0.00 76 1016.7
20260906101205 24 0 0.0 0.0 0.00 0.00 0.00 77 1016.7
20260906101105 24 0 0.0 0.0 0.00 0.00 0.00 77 1016.8
20260906101005 24 0 0.0 0.0 0.00 0.00 0.00 77 1016.7
20260906100804 24 0 0.0 0.0 0.00 0.00 0.00 76 1016.7
20260906100704 24 0 0.0 0.0 0.00 0.00 0.00 76 1016.8
20260906100604 24 0 0.0 0.0 0.00 0.00 0.00 76 1016.7
20260906100504 24 0 0.0 0.0 0.00 0.00 0.00 76 1016.8
20260906100405 24 0 0.0 0.0 0.00 0.00 0.00 77 1016.7
20260906100305 24 0 0.0 0.0 0.00 0.00 0.00 77 1016.7
20260906100204 24 0 0.0 0.0 0.00 0.00 0.00 77 1016.7
20260906100104 24 0 0.0 0.0 0.00 0.00 0.00 77 1016.7
20260906100004 24 0 0.0 0.0 0.00 0.00 0.00 77 1016.8
20260906095904 24 0 0.0 0.0 0.00 0.00 0.00 77 1016.8
20260906095704 24 0 0.0 0.0 0.00 0.00 0.00 77 1016.8
20260906095605 24 0 0.0 0.0 0.00 0.00 0.00 76 1016.7
20260906095505 24 0 0.0 0.0 0.00 0.00 0.00 75 1016.7
20260906095405 24 0 0.0 0.0 0.00 0.00 0.00 75 1016.7
20260906095306 24 0 0.0 0.0 0.00 0.00 0.00 75 1016.7
20260906095205 24 0 0.0 0.0 0.00 0.00 0.00 75 1016.7
20260906095104 24 0 0.0 0.0 0.00 0.00 0.00 75 1016.7
20260906095004 24 0 0.0 0.0 0.00 0.00 0.00 76 1016.7
20260906094904 24 0 0.0 0.0 0.00 0.00 0.00 76 1016.8
20260906094805 24 0 0.0 0.0 0.00 0.00 0.00 76 1016.8
20260906094704 24 0 0.0 0.0 0.00 0.00 0.00 76 1016.8
20260906094505 24 0 0.0 0.0 0.00 0.00 0.00 76 1016.7
20260906094405 24 0 0.0 0.0 0.00 0.00 0.00 76 1016.8
20260906094304 24 0 0.0 0.0 0.00 0.00 0.00 76 1016.8
20260906094204 24 0 0.0 0.0 0.00 0.00 0.00 76 1016.9
20260906094104 24 0 0.0 0.0 0.00 0.00 0.00 76 1016.8
20260906094004 24 0 0.0 0.0 0.00 0.00 0.00 76 1016.9
20260906093904 24 0 0.0 0.0 0.00 0.00 0.00 76 1016.8
20260906093804 24 0 0.0 0.0 0.00 0.00 0.00 77 1016.8
20260906093605 24 0 0.0 0.0 0.00 0.00 0.00 77 1016.8
20260906093505 24 0 0.0 0.0 0.00 0.00 0.00 77 1016.8
20260906093304 24 0 0.0 0.0 0.00 0.00 0.00 76 1016.7
20260906093104 24 0 0.0 0.0 0.00 0.00 0.00 76 1016.8
20260906093004 24 0 0.0 0.0 0.00 0.00 0.00 76 1016.8
20260906092805 24 0 0.0 0.0 0.00 0.00 0.00 76 1016.8
20260906092705 24 0 0.0 0.0 0.00 0.00 0.00 76 1016.8
20260906092605 24 0 0.0 0.0 0.00 0.00 0.00 76 1016.8
20260906092306 24 0 0.0 0.0 0.00 0.00 0.00 76 1016.7
20260906092204 24 0 0.0 0.0 0.00 0.00 0.00 76 1016.7
20260906092104 24 0 0.0 0.0 0.00 0.00 0.00 76 1016.7
20260906092004 24 0 0.0 0.0 0.00 0.00 0.00 75 1016.7
20260906091904 24 0 0.0 0.0 0.00 0.00 0.00 75 1016.7
20260906091805 24 0 0.0 0.0 0.00 0.00 0.00 75 1016.7
20260906091705 24 0 0.0 0.0 0.00 0.00 0.00 75 1016.7
20260906091605 24 0 0.0 0.0 0.00 0.00 0.00 75 1016.7
20260906091404 24 0 0.0 0.0 0.00 0.00 0.00 75 1016.7
20260906091304 24 0 0.0 0.0 0.00 0.00 0.00 75 1016.7
20260906091204 24 0 0.0 0.0 0.00 0.00 0.00 75 1016.7
20260906091104 24 0 0.0 0.0 0.00 0.00 0.00 75 1016.7
20260906090905 24 0 0.0 0.0 0.00 0.00 0.00 75 1016.7
20260906090805 24 0 0.0 0.0 0.00 0.00 0.00 75 1016.7
20260906090705 24 0 0.0 0.0 0.00 0.00 0.00 74 1016.6
20260906090605 24 0 0.0 0.0 0.00 0.00 0.00 74 1016.7
20260906090504 24 0 0.0 0.0 0.00 0.00 0.00 74 1016.7
20260906090404 24 0 0.0 0.0 0.00 0.00 0.00 75 1016.8
20260906090304 24 0 0.0 0.0 0.00 0.00 0.00 75 1016.7
20260906090204 24 0 0.0 0.0 0.00 0.00 0.00 75 1016.7
20260906085905 24 0 0.0 0.0 0.00 0.00 0.00 75 1016.7
20260906085805 24 0 0.0 0.0 0.00 0.00 0.00 76 1016.7
20260906085705 24 0 0.0 0.0 0.00 0.00 0.00 76 1016.7
20260906085605 24 0 0.0 0.0 0.00 0.00 0.00 76 1016.7
20260906085504 24 0 0.0 0.0 0.00 0.00 0.00 76 1016.7
20260906085404 25 0 0.0 0.0 0.00 0.00 0.00 75 1016.7
20260906085306 25 0 0.0 0.0 0.00 0.00 0.00 75 1016.7
20260906085204 25 0 0.0 0.0 0.00 0.00 0.00 75 1016.7
20260906085104 25 0 0.0 0.0 0.00 0.00 0.00 75 1016.8
20260906085004 25 0 0.0 0.0 0.00 0.00 0.00 74 1016.7
20260906084904 25 0 0.0 0.0 0.00 0.00 0.00 74 1016.7
20260906084804 25 0 0.0 0.0 0.00 0.00 0.00 74 1016.7
20260906084705 25 0 0.0 0.0 0.00 0.00 0.00 73 1016.7
20260906084605 25 0 0.0 0.0 0.00 0.00 0.00 73 1016.7
20260906084304 25 0 0.0 0.0 0.00 0.00 0.00 73 1016.6
20260906084005 25 0 0.0 0.0 0.00 0.00 0.00 73 1016.6
20260906083805 25 0 0.0 0.0 0.00 0.00 0.00 72 1016.6
20260906083704 25 0 0.0 0.0 0.00 0.00 0.00 72 1016.6
20260906083604 25 0 0.0 0.0 0.00 0.00 0.00 72 1016.5
20260906083504 25 0 0.0 0.0 0.00 0.00 0.00 71 1016.5
20260906083404 25 0 0.0 0.0 0.00 0.00 0.00 71 1016.5
20260906083304 25 0 0.0 0.0 0.00 0.00 0.00 71 1016.4
20260906083204 25 0 0.0 0.0 0.00 0.00 0.00 72 1016.5
20260906083104 25 0 0.0 0.0 0.00 0.00 0.00 72 1016.4
20260906083004 25 0 0.0 0.0 0.00 0.00 0.00 72 1016.4
20260906082704 25 0 0.0 0.0 0.00 0.00 0.00 73 1016.5
20260906082604 25 0 0.0 0.0 0.00 0.00 0.00 73 1016.6
20260906082505 25 0 0.0 0.0 0.00 0.00 0.00 73 1016.6
20260906082405 25 0 0.0 0.0 0.00 0.00 0.00 72 1016.5
20260906082004 25 0 0.0 0.0 0.00 0.00 0.00 72 1016.6
20260906081904 25 0 0.0 0.0 0.00 0.00 0.00 72 1016.6
20260906081804 25 0 0.0 0.0 0.00 0.00 0.00 73 1016.7
20260906081704 25 0 0.0 0.0 0.00 0.00 0.00 74 1016.7
20260906081505 25 0 0.0 0.0 0.00 0.00 0.00 74 1016.7
20260906081305 25 0 0.0 0.0 0.00 0.00 0.00 73 1016.7
20260906081004 25 0 0.0 0.0 0.00 0.00 0.00 72 1016.5
20260906080904 25 0 0.0 0.0 0.00 0.00 0.00 72 1016.6
20260906080804 25 0 0.0 0.0 0.00 0.00 0.00 72 1016.6
20260906080704 25 0 0.0 0.0 0.00 0.00 0.00 72 1016.5
20260906080604 25 0 0.0 0.0 0.00 0.00 0.00 72 1016.6
20260906080504 25 0 0.0 0.0 0.00 0.00 0.00 72 1016.6
20260906080405 25 0 0.0 0.0 0.00 0.00 0.00 72 1016.6
20260906080304 25 0 0.0 0.0 0.00 0.00 0.00 72 1016.6
20260906080205 25 0 0.0 0.0 0.00 0.00 0.00 71 1016.5
20260906080105 25 0 0.0 0.0 0.00 0.00 0.00 71 1016.6
20260906075804 25 0 0.0 0.0 0.00 0.00 0.00 69 1016.6
20260906075704 25 0 0.0 0.0 0.00 0.00 0.00 69 1016.6
20260906075405 25 0 0.0 0.0 0.00 0.00 0.00 68 1016.6
20260906075306 26 0 0.0 0.0 0.00 0.00 0.00 68 1016.6
20260906075205 26 0 0.0 0.0 0.00 0.00 0.00 68 1016.6
20260906075105 26 0 0.0 0.0 0.00 0.00 0.00 68 1016.6
20260906075005 26 0 0.0 0.0 0.00 0.00 0.00 68 1016.5
20260906074804 26 0 0.0 0.0 0.00 0.00 0.00 68 1016.5
20260906074704 26 0 0.0 0.0 0.00 0.00 0.00 68 1016.5
20260906074604 26 0 0.0 0.0 0.00 0.00 0.00 68 1016.5
20260906074504 26 0 0.0 0.0 0.00 0.00 0.00 68 1016.5
20260906074305 26 0 0.0 0.0 0.00 0.00 0.00 68 1016.5
20260906074204 26 0 0.0 0.0 0.00 0.00 0.00 68 1016.4
20260906074105 26 0 0.0 0.0 0.00 0.00 0.00 69 1016.5
20260906073904 26 0 0.0 0.0 0.00 0.00 0.00 68 1016.4
20260906073704 26 0 0.0 0.0 0.00 0.00 0.00 69 1016.5
20260906073604 26 0 0.0 0.0 0.00 0.00 0.00 69 1016.5
20260906073504 26 0 0.0 0.0 0.00 0.00 0.00 69 1016.4
20260906073404 26 0 0.0 0.0 0.00 0.00 0.00 69 1016.4
20260906073305 26 0 0.0 0.0 0.00 0.00 0.00 69 1016.4
20260906073205 26 0 0.0 0.0 0.00 0.00 0.00 69 1016.4
20260906073104 26 0 0.0 0.0 0.00 0.00 0.00 69 1016.4
20260906073004 26 0 0.0 0.0 0.00 0.00 0.00 69 1016.4
20260906072904 26 0 0.0 0.0 0.00 0.00 0.00 69 1016.4
20260906072704 26 0 0.0 0.0 0.00 0.00 0.00 69 1016.5
20260906072604 26 0 0.0 0.0 0.00 0.00 0.00 69 1016.5
20260906072504 26 0 0.0 0.0 0.00 0.00 0.00 69 1016.5
20260906072404 26 0 0.0 0.0 0.00 0.00 0.00 69 1016.5
20260906072104 26 146 0.0 1.6 0.00 0.00 0.00 68 1016.4
20260906071904 26 146 0.0 1.6 0.00 0.00 0.00 67 1016.4
20260906071805 26 146 0.0 1.6 0.00 0.00 0.00 68 1016.4
20260906071504 26 146 0.0 1.6 0.00 0.00 0.00 66 1016.3
20260906071404 26 146 0.0 1.6 0.00 0.00 0.00 66 1016.3
20260906071204 26 146 0.0 1.6 0.00 0.00 0.00 65 1016.3
20260906071104 26 0 0.0 0.0 0.00 0.00 0.00 65 1016.3
20260906071004 26 0 0.0 0.0 0.00 0.00 0.00 65 1016.3
20260906070804 26 0 0.0 0.0 0.00 0.00 0.00 65 1016.4
20260906070704 26 0 0.0 0.0 0.00 0.00 0.00 65 1016.3
20260906070604 26 0 0.0 0.0 0.00 0.00 0.00 65 1016.3
20260906070504 26 0 0.0 0.0 0.00 0.00 0.00 65 1016.3
20260906070404 26 0 0.0 0.0 0.00 0.00 0.00 65 1016.3
20260906070305 26 0 0.0 0.0 0.00 0.00 0.00 64 1016.4
20260906070205 26 0 0.0 0.0 0.00 0.00 0.00 65 1016.3
20260906070104 26 0 0.0 0.0 0.00 0.00 0.00 65 1016.3
20260906070004 26 0 0.0 0.0 0.00 0.00 0.00 65 1016.3
20260906065904 26 0 0.0 0.0 0.00 0.00 0.00 65 1016.5
20260906065804 26 0 0.0 0.0 0.00 0.00 0.00 64 1016.4
20260906065704 26 0 0.0 0.0 0.00 0.00 0.00 64 1016.4
20260906065604 26 0 0.0 0.0 0.00 0.00 0.00 64 1016.4
20260906065504 26 0 0.0 0.0 0.00 0.00 0.00 64 1016.5
20260906065404 26 0 0.0 0.0 0.00 0.00 0.00 64 1016.5
20260906065306 26 0 0.0 0.0 0.00 0.00 0.00 64 1016.5
20260906065205 26 0 0.0 0.0 0.00 0.00 0.00 64 1016.5
20260906065105 26 0 0.0 0.0 0.00 0.00 0.00 64 1016.5
20260906065005 26 0 0.0 0.0 0.00 0.00 0.00 64 1016.5
20260906064904 26 0 0.0 0.0 0.00 0.00 0.00 64 1016.5
20260906064804 26 0 0.0 0.0 0.00 0.00 0.00 64 1016.5
20260906064704 26 0 0.0 0.0 0.00 0.00 0.00 64 1016.5
20260906064604 26 0 0.0 0.0 0.00 0.00 0.00 64 1016.6
20260906064504 26 0 0.0 0.0 0.00 0.00 0.00 65 1016.5
20260906064404 26 0 0.0 0.0 0.00 0.00 0.00 64 1016.5
20260906064304 26 0 0.0 0.0 0.00 0.00 0.00 64 1016.5
20260906064204 26 0 0.0 0.0 0.00 0.00 0.00 64 1016.5
20260906064105 27 0 0.0 0.0 0.00 0.00 0.00 64 1016.5
20260906063904 27 0 0.0 0.0 0.00 0.00 0.00 64 1016.5
20260906063704 27 0 0.0 0.0 0.00 0.00 0.00 63 1016.4
20260906063604 27 0 0.0 0.0 0.00 0.00 0.00 63 1016.5
20260906063504 27 0 0.0 0.0 0.00 0.00 0.00 63 1016.4
20260906063404 27 0 0.0 0.0 0.00 0.00 0.00 63 1016.4
20260906063304 27 0 0.0 0.0 0.00 0.00 0.00 63 1016.4
20260906063205 27 0 0.0 0.0 0.00 0.00 0.00 63 1016.4
20260906063105 27 0 0.0 0.0 0.00 0.00 0.00 63 1016.4
20260906062904 27 0 0.0 0.0 0.00 0.00 0.00 63 1016.4
20260906062804 27 0 0.0 0.0 0.00 0.00 0.00 63 1016.4
20260906062704 27 0 0.0 0.0 0.00 0.00 0.00 63 1016.4
20260906062604 27 0 0.0 0.0 0.00 0.00 0.00 63 1016.4
20260906062504 27 0 0.0 0.0 0.00 0.00 0.00 63 1016.4
20260906062405 27 0 0.0 0.0 0.00 0.00 0.00 63 1016.4
20260906062306 27 0 0.0 0.0 0.00 0.00 0.00 63 1016.4
20260906062205 27 0 0.0 0.0 0.00 0.00 0.00 63 1016.5
20260906062104 27 0 0.0 0.0 0.00 0.00 0.00 63 1016.5
20260906061904 27 0 0.0 0.0 0.00 0.00 0.00 63 1016.5
20260906061704 27 0 0.0 0.0 0.00 0.00 0.00 64 1016.4
20260906061504 26 0 0.0 0.0 0.00 0.00 0.00 64 1016.5
20260906061404 26 0 0.0 0.0 0.00 0.00 0.00 65 1016.5
20260906061304 26 0 0.0 0.0 0.00 0.00 0.00 65 1016.5
20260906061205 26 0 0.0 0.0 0.00 0.00 0.00 65 1016.5
20260906060904 26 0 0.0 0.0 0.00 0.00 0.00 65 1016.5
20260906060804 26 0 0.0 0.0 0.00 0.00 0.00 64 1016.5
20260906060704 26 0 0.0 0.0 0.00 0.00 0.00 64 1016.5
20260906060604 26 0 0.0 0.0 0.00 0.00 0.00 64 1016.5
20260906060504 26 0 0.0 0.0 0.00 0.00 0.00 64 1016.5
20260906060404 26 0 0.0 0.0 0.00 0.00 0.00 64 1016.5
20260906060304 27 0 0.0 0.0 0.00 0.00 0.00 64 1016.5
20260906060204 27 0 0.0 0.0 0.00 0.00 0.00 64 1016.4
20260906060004 27 0 0.0 0.0 0.00 0.00 0.00 63 1016.5
20260906055904 27 0 0.0 0.0 0.00 0.00 0.00 63 1016.4
20260906055804 27 0 0.0 0.0 0.00 0.00 0.00 63 1016.5
20260906055704 27 0 0.0 0.0 0.00 0.00 0.00 63 1016.5
20260906055604 27 0 0.0 0.0 0.00 0.00 0.00 63 1016.5
20260906055505 27 0 0.0 0.0 0.00 0.00 0.00 63 1016.4
20260906055405 27 0 0.0 0.0 0.00 0.00 0.00 63 1016.5
20260906055306 27 0 0.0 0.0 0.00 0.00 0.00 63 1016.5
20260906055104 27 0 0.0 0.0 0.00 0.00 0.00 63 1016.5
20260906055004 27 0 0.0 0.0 0.00 0.00 0.00 63 1016.5
20260906054704 27 0 0.0 0.0 0.00 0.00 0.00 63 1016.6
20260906054504 27 0 0.0 0.0 0.00 0.00 0.00 63 1016.5
20260906054304 27 0 0.0 0.0 0.00 0.00 0.00 63 1016.5
20260906054204 27 0 0.0 0.0 0.00 0.00 0.00 63 1016.5
20260906054004 27 0 0.0 0.0 0.00 0.00 0.00 63 1016.5
20260906053904 27 0 0.0 0.0 0.00 0.00 0.00 63 1016.6
20260906053804 27 0 0.0 0.0 0.00 0.00 0.00 62 1016.5
20260906053704 27 0 0.0 0.0 0.00 0.00 0.00 62 1016.5
20260906053504 27 0 0.0 0.0 0.00 0.00 0.00 62 1016.5
20260906053405 27 0 0.0 0.0 0.00 0.00 0.00 62 1016.5
20260906053305 27 0 0.0 0.0 0.00 0.00 0.00 62 1016.5
20260906053205 27 0 0.0 0.0 0.00 0.00 0.00 61 1016.5
20260906053105 27 0 0.0 0.0 0.00 0.00 0.00 61 1016.5
20260906052804 27 0 0.0 0.0 0.00 0.00 0.00 61 1016.6
20260906052704 27 0 0.0 0.0 0.00 0.00 0.00 61 1016.6
20260906052604 27 0 0.0 0.0 0.00 0.00 0.00 61 1016.6
20260906052504 27 0 0.0 0.0 0.00 0.00 0.00 60 1016.6
20260906052404 27 0 0.0 0.0 0.00 0.00 0.00 60 1016.6
20260906052306 27 0 0.0 0.0 0.00 0.00 0.00 60 1016.6
20260906052105 27 0 0.0 0.0 0.00 0.00 0.00 60 1016.6
20260906052005 27 0 0.0 0.0 0.00 0.00 0.00 60 1016.6
20260906051905 27 0 0.0 0.0 0.00 0.00 0.00 60 1016.6
20260906051805 27 0 0.0 0.0 0.00 0.00 0.00 60 1016.6
20260906051604 28 0 0.0 0.0 0.00 0.00 0.00 60 1016.6
20260906051404 28 0 0.0 0.0 0.00 0.00 0.00 60 1016.6
20260906051304 28 0 0.0 0.0 0.00 0.00 0.00 60 1016.6
20260906051204 28 0 0.0 0.0 0.00 0.00 0.00 60 1016.6
20260906051104 28 0 0.0 0.0 0.00 0.00 0.00 60 1016.6
20260906050904 28 0 0.0 0.0 0.00 0.00 0.00 59 1016.6
20260906050804 28 0 0.0 0.0 0.00 0.00 0.00 59 1016.6
20260906050604 28 0 0.0 0.0 0.00 0.00 0.00 58 1016.6
20260906050504 28 0 0.0 0.0 0.00 0.00 0.00 58 1016.5
20260906050404 28 0 0.0 0.0 0.00 0.00 0.00 58 1016.5
20260906050304 28 0 0.0 0.0 0.00 0.00 0.00 58 1016.5
20260906045905 28 0 0.0 0.0 0.00 0.00 0.00 58 1016.5
20260906045704 28 0 0.0 0.0 0.00 0.00 0.00 57 1016.5
20260906045604 28 0 0.0 0.0 0.00 0.00 0.00 57 1016.4
20260906045504 28 0 0.0 0.0 0.00 0.00 0.00 57 1016.4
20260906045404 28 0 0.0 0.0 0.00 0.00 0.00 57 1016.4
20260906045306 28 0 0.0 0.0 0.00 0.00 0.00 57 1016.4
20260906045104 28 0 0.0 0.0 0.00 0.00 0.00 56 1016.4
20260906045004 28 0 0.0 0.0 0.00 0.00 0.00 56 1016.4
20260906044704 29 167 0.0 3.2 0.00 0.00 0.00 56 1016.4
20260906044605 29 154 0.0 3.2 0.00 0.00 0.00 56 1016.4
20260906044504 29 154 0.0 3.2 0.00 0.00 0.00 56 1016.3
20260906044405 29 154 0.0 3.2 0.00 0.00 0.00 56 1016.3
20260906044305 29 154 0.0 3.2 0.00 0.00 0.00 56 1016.3
20260906044104 29 154 0.0 3.2 0.00 0.00 0.00 56 1016.3
20260906044004 29 154 0.0 3.2 0.00 0.00 0.00 56 1016.3
20260906043904 29 154 0.0 3.2 0.00 0.00 0.00 56 1016.3
20260906043804 29 154 0.0 3.2 0.00 0.00 0.00 56 1016.3
20260906043704 29 125 0.0 1.6 0.00 0.00 0.00 56 1016.2
20260906043604 29 0 0.0 0.0 0.00 0.00 0.00 56 1016.2
20260906043404 29 0 0.0 0.0 0.00 0.00 0.00 56 1016.2
20260906043305 29 0 0.0 0.0 0.00 0.00 0.00 56 1016.2
20260906043104 29 0 0.0 0.0 0.00 0.00 0.00 56 1016.2
20260906043004 29 0 0.0 0.0 0.00 0.00 0.00 56 1016.2
20260906042904 29 0 0.0 0.0 0.00 0.00 0.00 56 1016.2
20260906042804 29 0 0.0 0.0 0.00 0.00 0.00 56 1016.2
20260906042704 29 0 0.0 0.0 0.00 0.00 0.00 56 1016.2
20260906042504 29 0 0.0 0.0 0.00 0.00 0.00 56 1016.2
20260906042404 29 0 0.0 0.0 0.00 0.00 0.00 56 1016.2
20260906042204 29 0 0.0 0.0 0.00 0.00 0.00 55 1016.2
20260906042005 30 0 0.0 0.0 0.00 0.00 0.00 55 1016.3
20260906041905 30 0 0.0 0.0 0.00 0.00 0.00 55 1016.3
20260906041805 30 0 0.0 0.0 0.00 0.00 0.00 55 1016.3
20260906041604 30 154 0.0 1.6 0.00 0.00 0.00 55 1016.3
20260906041504 30 154 0.0 1.6 0.00 0.00 0.00 55 1016.3
20260906041404 30 154 0.0 1.6 0.00 0.00 0.00 54 1016.3
20260906041304 30 154 0.0 1.6 0.00 0.00 0.00 54 1016.3
20260906041204 30 154 0.0 1.6 0.00 0.00 0.00 54 1016.3
20260906041104 30 154 0.0 1.6 0.00 0.00 0.00 54 1016.3
20260906040805 30 154 0.0 1.6 0.00 0.00 0.00 54 1016.4
20260906040705 30 154 0.0 1.6 0.00 0.00 0.00 54 1016.4
20260906040604 30 160 0.0 3.2 0.00 0.00 0.00 54 1016.4
20260906040504 30 162 0.0 3.2 0.00 0.00 0.00 54 1016.4
20260906040304 30 157 0.0 3.2 0.00 0.00 0.00 54 1016.4
20260906040204 30 157 0.0 3.2 0.00 0.00 0.00 54 1016.3
20260906040104 30 157 0.0 3.2 0.00 0.00 0.00 54 1016.3
20260906040004 30 157 0.0 3.2 0.00 0.00 0.00 53 1016.3
20260906035904 30 156 0.0 3.2 0.00 0.00 0.00 53 1016.3
20260906035804 30 156 0.0 3.2 0.00 0.00 0.00 53 1016.3
20260906035704 30 155 0.0 3.2 0.00 0.00 0.00 53 1016.2
20260906035604 30 153 0.0 3.2 0.00 0.00 0.00 53 1016.2
20260906035505 30 149 0.0 3.2 0.00 0.00 0.00 53 1016.2
20260906035405 30 149 0.0 1.6 0.00 0.00 0.00 53 1016.2
20260906035306 30 152 0.0 3.2 0.00 0.00 0.00 53 1016.1
20260906035104 30 152 0.0 3.2 0.00 0.00 0.00 52 1016.1
20260906035004 30 149 0.0 3.2 0.00 0.00 0.00 52 1016.1
20260906034904 30 149 0.0 3.2 0.00 0.00 0.00 52 1016.1
20260906034804 30 148 1.6 3.2 0.00 0.00 0.00 52 1016.1
20260906034704 30 143 1.6 3.2 0.00 0.00 0.00 52 1016.1
20260906034604 30 141 1.6 3.2 0.00 0.00 0.00 52 1016.1
20260906034504 30 135 0.0 3.2 0.00 0.00 0.00 52 1016.1
20260906034404 30 132 0.0 3.2 0.00 0.00 0.00 52 1016.0
20260906034204 31 123 0.0 3.2 0.00 0.00 0.00 52 1016.1
20260906034104 30 123 0.0 3.2 0.00 0.00 0.00 52 1016.1
20260906033904 31 122 0.0 3.2 0.00 0.00 0.00 52 1016.0
20260906033804 31 121 0.0 3.2 0.00 0.00 0.00 52 1016.0
20260906033704 31 123 0.0 3.2 0.00 0.00 0.00 52 1016.0
20260906033504 31 144 0.0 3.2 0.00 0.00 0.00 52 1016.1
20260906033304 31 145 0.0 3.2 0.00 0.00 0.00 52 1016.1
20260906033204 31 146 0.0 3.2 0.00 0.00 0.00 52 1016.0
20260906033105 31 146 0.0 3.2 0.00 0.00 0.00 52 1016.0
20260906032904 31 145 0.0 3.2 0.00 0.00 0.00 52 1016.0
20260906032804 31 144 0.0 3.2 0.00 0.00 0.00 51 1016.0
20260906032704 31 146 0.0 3.2 0.00 0.00 0.00 51 1016.0
20260906032604 31 141 0.0 3.2 0.00 0.00 0.00 52 1015.9
20260906032504 31 137 0.0 1.6 0.00 0.00 0.00 52 1015.9
20260906032404 31 134 0.0 1.6 0.00 0.00 0.00 52 1016.0
20260906032306 31 133 0.0 1.6 0.00 0.00 0.00 52 1016.0
20260906032204 31 133 0.0 1.6 0.00 0.00 0.00 51 1015.9
20260906032104 31 131 0.0 1.6 0.00 0.00 0.00 51 1015.9
20260906032004 31 131 0.0 1.6 0.00 0.00 0.00 51 1015.9
20260906031904 31 129 0.0 1.6 0.00 0.00 0.00 51 1015.9
20260906031804 31 129 0.0 1.6 0.00 0.00 0.00 51 1015.9
20260906031704 31 129 0.0 1.6 0.00 0.00 0.00 51 1015.9
20260906031604 31 124 0.0 1.6 0.00 0.00 0.00 51 1015.9
20260906031504 31 124 0.0 1.6 0.00 0.00 0.00 51 1015.9
20260906031404 31 127 0.0 1.6 0.00 0.00 0.00 51 1015.9
20260906031204 31 133 0.0 3.2 0.00 0.00 0.00 51 1015.9
20260906031104 31 136 0.0 3.2 0.00 0.00 0.00 51 1015.8
20260906031004 31 137 0.0 3.2 0.00 0.00 0.00 51 1015.8
20260906030904 31 140 0.0 3.2 0.00 0.00 0.00 51 1015.8
20260906030805 31 146 0.0 3.2 0.00 0.00 0.00 51 1015.8
20260906030604 31 148 0.0 3.2 0.00 0.00 0.00 51 1015.8
20260906030504 31 148 0.0 3.2 0.00 0.00 0.00 51 1015.8
20260906030404 31 149 0.0 3.2 0.00 0.00 0.00 51 1015.8
20260906030304 31 150 0.0 3.2 0.00 0.00 0.00 51 1015.8
20260906030204 31 155 0.0 4.8 0.00 0.00 0.00 51 1015.8
20260906030104 31 156 0.0 4.8 0.00 0.00 0.00 51 1015.8
20260906030004 31 156 0.0 4.8 0.00 0.00 0.00 51 1015.7
20260906025904 31 156 0.0 4.8 0.00 0.00 0.00 51 1015.8
20260906025605 31 154 0.0 4.8 0.00 0.00 0.00 51 1015.8
20260906025504 31 155 0.0 4.8 0.00 0.00 0.00 51 1015.8
20260906025405 31 156 0.0 4.8 0.00 0.00 0.00 51 1015.8
20260906025306 31 156 0.0 4.8 0.00 0.00 0.00 51 1015.8
20260906025204 31 148 0.0 3.2 0.00 0.00 0.00 51 1015.8
20260906025104 31 150 0.0 3.2 0.00 0.00 0.00 51 1015.8
20260906025004 31 150 0.0 3.2 0.00 0.00 0.00 51 1015.8
20260906024904 31 149 0.0 3.2 0.00 0.00 0.00 51 1015.9
20260906024804 31 149 0.0 3.2 0.00 0.00 0.00 51 1015.8
20260906024704 31 149 0.0 3.2 0.00 0.00 0.00 51 1015.8
20260906024604 31 150 0.0 3.2 0.00 0.00 0.00 51 1015.8
20260906024504 31 148 0.0 3.2 0.00 0.00 0.00 51 1015.8
20260906024404 31 145 0.0 3.2 0.00 0.00 0.00 51 1015.8
20260906024304 31 145 0.0 3.2 0.00 0.00 0.00 51 1015.8
20260906024204 31 145 0.0 3.2 0.00 0.00 0.00 51 1015.8
20260906024104 31 138 0.0 3.2 0.00 0.00 0.00 51 1015.8
20260906024004 31 137 0.0 3.2 0.00 0.00 0.00 51 1015.7
20260906023904 31 139 0.0 3.2 0.00 0.00 0.00 51 1015.8
20260906023804 31 138 0.0 1.6 0.00 0.00 0.00 51 1015.7
20260906023705 31 138 0.0 1.6 0.00 0.00 0.00 51 1015.7
20260906023605 31 138 0.0 1.6 0.00 0.00 0.00 51 1015.7
20260906023505 31 139 0.0 1.6 0.00 0.00 0.00 51 1015.6
20260906023304 31 139 0.0 1.6 0.00 0.00 0.00 51 1015.6
20260906023205 31 139 0.0 1.6 0.00 0.00 0.00 51 1015.6
20260906023104 31 140 0.0 1.6 0.00 0.00 0.00 51 1015.6
20260906023004 31 144 0.0 1.6 0.00 0.00 0.00 51 1015.6
20260906022804 31 150 0.0 1.6 0.00 0.00 0.00 51 1015.6
20260906022704 31 150 0.0 1.6 0.00 0.00 0.00 51 1015.5
20260906022604 31 150 0.0 1.6 0.00 0.00 0.00 51 1015.5
20260906022504 31 149 0.0 1.6 0.00 0.00 0.00 51 1015.5
20260906022404 31 148 0.0 1.6 0.00 0.00 0.00 51 1015.4
20260906022306 31 148 0.0 1.6 0.00 0.00 0.00 51 1015.4
20260906022204 31 148 0.0 1.6 0.00 0.00 0.00 51 1015.4
20260906022004 31 148 0.0 1.6 0.00 0.00 0.00 51 1015.4
20260906021804 31 147 0.0 1.6 0.00 0.00 0.00 51 1015.3
20260906021705 31 147 0.0 1.6 0.00 0.00 0.00 51 1015.4
20260906021505 31 148 0.0 1.6 0.00 0.00 0.00 51 1015.3
20260906021304 31 148 0.0 1.6 0.00 0.00 0.00 51 1015.3
20260906021204 31 148 0.0 1.6 0.00 0.00 0.00 51 1015.3
20260906021104 31 148 0.0 1.6 0.00 0.00 0.00 50 1015.3
20260906021004 31 150 0.0 3.2 0.00 0.00 0.00 50 1015.3
20260906020904 31 150 0.0 3.2 0.00 0.00 0.00 50 1015.3
20260906020704 31 150 0.0 3.2 0.00 0.00 0.00 50 1015.2
20260906020604 31 150 0.0 3.2 0.00 0.00 0.00 50 1015.2
20260906020504 31 150 0.0 3.2 0.00 0.00 0.00 50 1015.2
20260906020404 31 150 0.0 3.2 0.00 0.00 0.00 50 1015.2
20260906020305 32 150 0.0 3.2 0.00 0.00 0.00 50 1015.2
20260906020204 32 149 0.0 3.2 0.00 0.00 0.00 50 1015.2
20260906020104 32 149 0.0 3.2 0.00 0.00 0.00 50 1015.2
20260906020004 32 148 0.0 3.2 0.00 0.00 0.00 50 1015.1
20260906015904 32 147 0.0 3.2 0.00 0.00 0.00 49 1015.1
20260906015804 32 147 0.0 3.2 0.00 0.00 0.00 50 1015.1
20260906015704 32 146 0.0 3.2 0.00 0.00 0.00 49 1015.1
20260906015604 32 145 0.0 3.2 0.00 0.00 0.00 49 1015.1
20260906015504 32 144 0.0 1.6 0.00 0.00 0.00 49 1015.1
20260906015404 32 144 0.0 1.6 0.00 0.00 0.00 49 1015.1
20260906015306 32 143 0.0 1.6 0.00 0.00 0.00 49 1015.1
20260906015204 32 141 0.0 1.6 0.00 0.00 0.00 49 1015.1
20260906015104 32 140 0.0 1.6 0.00 0.00 0.00 49 1015.1
20260906015004 32 140 0.0 1.6 0.00 0.00 0.00 49 1015.2
20260906014904 32 140 0.0 1.6 0.00 0.00 0.00 49 1015.2
20260906014804 32 140 0.0 1.6 0.00 0.00 0.00 49 1015.2
20260906014704 32 140 0.0 1.6 0.00 0.00 0.00 49 1015.2
20260906014504 32 140 0.0 1.6 0.00 0.00 0.00 48 1015.2
20260906014304 32 140 0.0 1.6 0.00 0.00 0.00 48 1015.1
20260906014204 32 140 0.0 1.6 0.00 0.00 0.00 48 1015.1
20260906014104 32 0 0.0 0.0 0.00 0.00 0.00 48 1015.2
20260906014004 32 0 0.0 0.0 0.00 0.00 0.00 48 1015.2
20260906013904 32 0 0.0 0.0 0.00 0.00 0.00 47 1015.1
20260906013804 32 140 0.0 1.6 0.00 0.00 0.00 47 1015.1
20260906013704 32 140 0.0 1.6 0.00 0.00 0.00 47 1015.1
20260906013604 32 140 0.0 1.6 0.00 0.00 0.00 47 1015.1
20260906013504 32 140 0.0 1.6 0.00 0.00 0.00 47 1015.1
20260906013404 32 140 0.0 1.6 0.00 0.00 0.00 47 1015.0
20260906013204 32 141 0.0 1.6 0.00 0.00 0.00 47 1015.0
20260906013104 32 141 0.0 1.6 0.00 0.00 0.00 47 1015.0
20260906013004 32 141 0.0 1.6 0.00 0.00 0.00 47 1015.0
20260906012804 32 140 0.0 1.6 0.00 0.00 0.00 47 1015.0
20260906012604 32 140 0.0 1.6 0.00 0.00 0.00 46 1014.9
20260906012504 32 140 0.0 1.6 0.00 0.00 0.00 46 1014.9
20260906012404 32 140 0.0 1.6 0.00 0.00 0.00 46 1014.8
20260906012306 32 140 0.0 1.6 0.00 0.00 0.00 46 1014.8
20260906012104 32 140 0.0 1.6 0.00 0.00 0.00 46 1014.8
20260906012004 32 140 0.0 1.6 0.00 0.00 0.00 46 1014.8
20260906011904 33 141 0.0 1.6 0.00 0.00 0.00 46 1014.8
20260906011804 33 141 0.0 1.6 0.00 0.00 0.00 46 1014.8
20260906011704 33 141 0.0 1.6 0.00 0.00 0.00 46 1014.8
20260906011604 33 141 0.0 1.6 0.00 0.00 0.00 46 1014.8
20260906011504 33 141 0.0 1.6 0.00 0.00 0.00 46 1014.8
20260906011304 33 140 0.0 1.6 0.00 0.00 0.00 46 1014.7
20260906011004 33 141 0.0 1.6 0.00 0.00 0.00 46 1014.8
20260906010904 33 141 0.0 1.6 0.00 0.00 0.00 46 1014.8
20260906010804 33 141 0.0 1.6 0.00 0.00 0.00 46 1014.8
20260906010704 33 140 0.0 1.6 0.00 0.00 0.00 45 1014.8
20260906010504 33 141 0.0 1.6 0.00 0.00 0.00 45 1014.8
20260906010404 33 150 0.0 3.2 0.00 0.00 0.00 45 1014.8
20260906010204 33 145 0.0 3.2 0.00 0.00 0.00 45 1014.8
20260906010004 33 145 0.0 3.2 0.00 0.00 0.00 45 1014.7
20260906005904 33 145 0.0 3.2 0.00 0.00 0.00 45 1014.8
20260906005804 33 145 0.0 3.2 0.00 0.00 0.00 45 1014.7
20260906005704 33 144 0.0 3.2 0.00 0.00 0.00 44 1014.7
20260906005605 33 144 0.0 3.2 0.00 0.00 0.00 44 1014.7
20260906005504 33 143 0.0 3.2 0.00 0.00 0.00 44 1014.7
20260906005404 33 140 0.0 1.6 0.00 0.00 0.00 44 1014.7
20260906005306 33 140 0.0 1.6 0.00 0.00 0.00 44 1014.6
20260906005104 33 139 0.0 1.6 0.00 0.00 0.00 44 1014.6
20260906005004 33 139 0.0 1.6 0.00 0.00 0.00 44 1014.6
20260906004604 34 141 0.0 1.6 0.00 0.00 0.00 43 1014.6
20260906004504 34 144 0.0 1.6 0.00 0.00 0.00 43 1014.6
20260906004404 34 138 0.0 3.2 0.00 0.00 0.00 43 1014.6
20260906004304 34 137 0.0 3.2 0.00 0.00 0.00 43 1014.6
20260906004204 34 133 1.6 4.8 0.00 0.00 0.00 43 1014.6
20260906004004 34 132 1.6 4.8 0.00 0.00 0.00 43 1014.6
20260906003804 34 130 1.6 4.8 0.00 0.00 0.00 43 1014.5
20260906003704 34 131 1.6 4.8 0.00 0.00 0.00 43 1014.5
20260906003604 34 131 1.6 4.8 0.00 0.00 0.00 43 1014.5
20260906003504 34 130 1.6 4.8 0.00 0.00 0.00 42 1014.4
20260906003404 34 130 1.6 4.8 0.00 0.00 0.00 42 1014.4
20260906003304 34 129 1.6 4.8 0.00 0.00 0.00 42 1014.5
20260906003204 34 131 0.0 4.8 0.00 0.00 0.00 42 1014.4
20260906003104 34 132 1.6 4.8 0.00 0.00 0.00 42 1014.5
20260906003004 34 132 1.6 4.8 0.00 0.00 0.00 42 1014.5
20260906002904 34 132 1.6 4.8 0.00 0.00 0.00 42 1014.4
20260906002704 34 131 0.0 4.8 0.00 0.00 0.00 42 1014.4
20260906002604 35 131 0.0 4.8 0.00 0.00 0.00 42 1014.4
20260906002505 35 133 0.0 4.8 0.00 0.00 0.00 42 1014.4
20260906002404 35 133 0.0 4.8 0.00 0.00 0.00 42 1014.4
20260906002306 35 132 0.0 3.2 0.00 0.00 0.00 42 1014.5
20260906002204 35 130 0.0 3.2 0.00 0.00 0.00 42 1014.5
20260906002004 35 128 0.0 3.2 0.00 0.00 0.00 42 1014.5
20260906001804 35 129 0.0 3.2 0.00 0.00 0.00 42 1014.5
20260906001704 35 129 0.0 3.2 0.00 0.00 0.00 42 1014.5
20260906001604 35 128 0.0 3.2 0.00 0.00 0.00 42 1014.6
20260906001504 35 125 0.0 3.2 0.00 0.00 0.00 42 1014.6
20260906001304 35 129 0.0 3.2 0.00 0.00 0.00 42 1014.6
20260906001204 35 131 0.0 3.2 0.00 0.00 0.00 42 1014.6
20260906001005 35 144 0.0 8.0 0.00 0.00 0.00 41 1014.6
20260906000904 35 144 0.0 8.0 0.00 0.00 0.00 41 1014.6
20260906000704 35 145 0.0 8.0 0.00 0.00 0.00 42 1014.7
20260906000604 35 144 1.6 8.0 0.00 0.00 0.00 41 1014.7
20260906000504 35 140 1.6 8.0 0.00 0.00 0.00 41 1014.7
20260906000404 35 140 1.6 8.0 0.00 0.00 0.00 41 1014.8
20260906000304 35 144 1.6 8.0 0.00 0.00 0.00 41 1014.8
20260906000204 35 144 0.0 8.0 0.00 0.00 0.00 41 1014.8
20260906000104 35 138 0.0 6.4 0.00 0.00 0.00 41 1014.8
20260906000004 35 138 0.0 6.4 0.00 0.00 0.00 41 1014.8
20260905235904 35 138 1.6 6.4 0.00 0.00 0.00 41 1014.8
20260905235804 35 144 1.6 8.0 0.00 0.00 0.00 41 1014.8
20260905235704 35 144 1.6 8.0 0.00 0.00 0.00 40 1014.8
20260905235604 35 144 1.6 8.0 0.00 0.00 0.00 40 1014.7
20260905235504 35 145 1.6 8.0 0.00 0.00 0.00 40 1014.7
20260905235405 35 136 1.6 8.0 0.00 0.00 0.00 40 1014.8
20260905235204 35 138 1.6 8.0 0.00 0.00 0.00 40 1014.8
20260905235104 35 137 1.6 8.0 0.00 0.00 0.00 40 1014.7
20260905235005 35 137 1.6 8.0 0.00 0.00 0.00 40 1014.7
20260905234804 35 130 1.6 6.4 0.00 0.00 0.00 39 1014.7
20260905234604 36 126 1.6 6.4 0.00 0.00 0.00 39 1014.7
20260905234504 36 129 1.6 6.4 0.00 0.00 0.00 39 1014.6
20260905234404 36 131 1.6 6.4 0.00 0.00 0.00 39 1014.7
20260905234304 36 128 1.6 6.4 0.00 0.00 0.00 39 1014.7
20260905234204 36 124 1.6 6.4 0.00 0.00 0.00 39 1014.7
20260905234104 36 122 3.2 6.4 0.00 0.00 0.00 39 1014.7
20260905234004 36 122 3.2 6.4 0.00 0.00 0.00 38 1014.6
20260905233904 36 122 3.2 6.4 0.00 0.00 0.00 38 1014.6
20260905233804 36 123 3.2 8.0 0.00 0.00 0.00 38 1014.6
20260905233704 36 124 3.2 8.0 0.00 0.00 0.00 38 1014.6
20260905233604 36 123 3.2 8.0 0.00 0.00 0.00 38 1014.6
20260905233504 36 121 3.2 8.0 0.00 0.00 0.00 38 1014.6
20260905233405 36 121 1.6 8.0 0.00 0.00 0.00 38 1014.6
20260905233304 36 120 1.6 8.0 0.00 0.00 0.00 38 1014.7
20260905233204 36 120 1.6 8.0 0.00 0.00 0.00 38 1014.7
20260905233104 36 120 1.6 8.0 0.00 0.00 0.00 38 1014.6
20260905232904 36 119 1.6 8.0 0.00 0.00 0.00 37 1014.6
20260905232804 36 118 1.6 8.0 0.00 0.00 0.00 38 1014.6
20260905232704 36 118 3.2 8.0 0.00 0.00 0.00 37 1014.6
20260905232604 36 119 3.2 8.0 0.00 0.00 0.00 38 1014.7
20260905232504 36 121 3.2 8.0 0.00 0.00 0.00 37 1014.7
20260905232404 36 125 3.2 8.0 0.00 0.00 0.00 37 1014.7
20260905232306 36 131 3.2 8.0 0.00 0.00 0.00 37 1014.8
20260905232204 36 131 3.2 8.0 0.00 0.00 0.00 37 1014.7
20260905232104 36 133 3.2 8.0 0.00 0.00 0.00 37 1014.7
20260905232004 36 131 3.2 8.0 0.00 0.00 0.00 37 1014.8
20260905231904 36 139 3.2 12.9 0.00 0.00 0.00 37 1014.8
20260905231804 36 146 3.2 12.9 0.00 0.00 0.00 37 1014.8
20260905231704 37 149 3.2 12.9 0.00 0.00 0.00 37 1014.8
20260905231604 37 151 3.2 12.9 0.00 0.00 0.00 37 1014.8
20260905231504 37 153 3.2 12.9 0.00 0.00 0.00 37 1014.8
20260905231404 37 149 3.2 12.9 0.00 0.00 0.00 37 1014.8
20260905231304 37 146 3.2 12.9 0.00 0.00 0.00 37 1014.8
20260905231204 37 148 3.2 12.9 0.00 0.00 0.00 36 1014.7
20260905231105 37 148 3.2 12.9 0.00 0.00 0.00 36 1014.8
20260905231004 37 156 1.6 12.9 0.00 0.00 0.00 36 1014.8
20260905230905 37 148 1.6 6.4 0.00 0.00 0.00 37 1014.8
20260905230805 37 138 1.6 4.8 0.00 0.00 0.00 37 1014.8
20260905230605 37 131 1.6 4.8 0.00 0.00 0.00 37 1014.9
20260905230404 37 133 1.6 4.8 0.00 0.00 0.00 36 1014.8
20260905230304 37 138 3.2 6.4 0.00 0.00 0.00 36 1014.8
20260905230204 37 146 3.2 9.7 0.00 0.00 0.00 36 1014.8
20260905230004 37 152 3.2 9.7 0.00 0.00 0.00 37 1014.8
20260905225904 37 147 3.2 9.7 0.00 0.00 0.00 36 1014.8
20260905225804 37 138 3.2 9.7 0.00 0.00 0.00 36 1014.8
20260905225704 37 138 3.2 9.7 0.00 0.00 0.00 36 1014.8
20260905225504 37 138 3.2 9.7 0.00 0.00 0.00 36 1014.8
20260905225404 37 134 3.2 9.7 0.00 0.00 0.00 35 1014.8
20260905225306 37 128 3.2 9.7 0.00 0.00 0.00 36 1014.9
20260905225204 37 120 3.2 9.7 0.00 0.00 0.00 36 1014.8
20260905225004 37 112 3.2 8.0 0.00 0.00 0.00 36 1014.8
20260905224804 37 146 3.2 11.3 0.00 0.00 0.00 36 1014.7
20260905224704 37 150 3.2 11.3 0.00 0.00 0.00 36 1014.7
20260905224604 37 147 3.2 11.3 0.00 0.00 0.00 36 1014.7
20260905224504 37 150 3.2 11.3 0.00 0.00 0.00 35 1014.6
20260905224404 37 157 3.2 11.3 0.00 0.00 0.00 35 1014.7
20260905224304 37 162 3.2 11.3 0.00 0.00 0.00 36 1014.7
20260905224204 37 161 3.2 11.3 0.00 0.00 0.00 36 1014.8
20260905224104 37 162 3.2 11.3 0.00 0.00 0.00 36 1014.8
20260905224004 38 165 3.2 11.3 0.00 0.00 0.00 35 1014.7
20260905223904 38 165 3.2 11.3 0.00 0.00 0.00 35 1014.8
20260905223804 38 164 3.2 12.9 0.00 0.00 0.00 36 1014.8
20260905223604 38 168 3.2 12.9 0.00 0.00 0.00 35 1014.7
20260905223504 38 165 3.2 12.9 0.00 0.00 0.00 35 1014.8
20260905223404 38 159 4.8 12.9 0.00 0.00 0.00 36 1014.7
20260905223304 38 151 3.2 12.9 0.00 0.00 0.00 36 1014.7
20260905223204 38 152 3.2 12.9 0.00 0.00 0.00 36 1014.7
20260905223004 38 145 3.2 12.9 0.00 0.00 0.00 36 1014.7
20260905222904 38 151 3.2 12.9 0.00 0.00 0.00 35 1014.7
20260905222804 38 140 3.2 12.9 0.00 0.00 0.00 35 1014.7
20260905222704 38 137 3.2 12.9 0.00 0.00 0.00 35 1014.7
20260905222604 38 136 3.2 12.9 0.00 0.00 0.00 35 1014.7
20260905222504 38 137 3.2 12.9 0.00 0.00 0.00 34 1014.7
20260905222404 38 141 3.2 12.9 0.00 0.00 0.00 34 1014.7
20260905222306 38 146 3.2 11.3 0.00 0.00 0.00 35 1014.7
20260905222204 38 140 3.2 11.3 0.00 0.00 0.00 35 1014.7
20260905222104 38 134 3.2 11.3 0.00 0.00 0.00 35 1014.7
20260905221904 38 126 3.2 8.0 0.00 0.00 0.00 35 1014.7
20260905221804 38 121 3.2 8.0 0.00 0.00 0.00 35 1014.7
20260905221705 38 122 3.2 8.0 0.00 0.00 0.00 36 1014.7
20260905221504 37 122 3.2 8.0 0.00 0.00 0.00 35 1014.7
20260905221405 38 120 3.2 8.0 0.00 0.00 0.00 35 1014.7
20260905221305 38 119 3.2 8.0 0.00 0.00 0.00 35 1014.7
20260905221005 38 115 1.6 8.0 0.00 0.00 0.00 35 1014.7
20260905220905 38 118 1.6 8.0 0.00 0.00 0.00 35 1014.6
20260905220805 38 131 1.6 9.7 0.00 0.00 0.00 36 1014.7
20260905220604 38 132 3.2 9.7 0.00 0.00 0.00 36 1014.6
20260905220504 38 133 3.2 9.7 0.00 0.00 0.00 36 1014.6
20260905220404 37 142 3.2 9.7 0.00 0.00 0.00 36 1014.6
20260905220204 37 159 3.2 9.7 0.00 0.00 0.00 37 1014.6
20260905220104 37 163 3.2 9.7 0.00 0.00 0.00 37 1014.6
20260905220004 37 168 3.2 9.7 0.00 0.00 0.00 37 1014.5
20260905215804 37 171 3.2 14.5 0.00 0.00 0.00 37 1014.6
20260905215704 37 169 3.2 14.5 0.00 0.00 0.00 36 1014.5
20260905215505 37 170 3.2 14.5 0.00 0.00 0.00 36 1014.5
20260905215306 37 161 3.2 14.5 0.00 0.00 0.00 36 1014.5
20260905215205 37 160 3.2 14.5 0.00 0.00 0.00 36 1014.5
20260905215005 37 152 3.2 14.5 0.00 0.00 0.00 36 1014.5
20260905214804 37 135 3.2 8.0 0.00 0.00 0.00 37 1014.5
20260905214704 37 133 3.2 8.0 0.00 0.00 0.00 37 1014.5
20260905214604 37 136 3.2 9.7 0.00 0.00 0.00 36 1014.4
20260905214504 37 142 3.2 9.7 0.00 0.00 0.00 37 1014.5
20260905214304 37 137 3.2 9.7 0.00 0.00 0.00 37 1014.5
20260905214204 37 133 3.2 9.7 0.00 0.00 0.00 36 1014.5
20260905214104 37 132 4.8 9.7 0.00 0.00 0.00 36 1014.5
20260905213904 37 128 4.8 12.9 0.00 0.00 0.00 35 1014.5
20260905213704 37 138 4.8 12.9 0.00 0.00 0.00 36 1014.5
20260905213604 37 136 4.8 12.9 0.00 0.00 0.00 37 1014.6
20260905213504 37 132 4.8 12.9 0.00 0.00 0.00 36 1014.6
20260905213404 37 129 4.8 12.9 0.00 0.00 0.00 36 1014.6
20260905213304 38 130 4.8 12.9 0.00 0.00 0.00 36 1014.5
20260905213204 38 132 3.2 12.9 0.00 0.00 0.00 36 1014.7
20260905213104 38 133 3.2 12.9 0.00 0.00 0.00 36 1014.7
20260905213004 38 135 3.2 12.9 0.00 0.00 0.00 36 1014.7
20260905212904 38 137 3.2 11.3 0.00 0.00 0.00 36 1014.6
20260905212804 38 138 3.2 11.3 0.00 0.00 0.00 37 1014.6
20260905212704 38 119 3.2 8.0 0.00 0.00 0.00 36 1014.6
20260905212604 38 115 3.2 8.0 0.00 0.00 0.00 36 1014.7
20260905212504 38 118 3.2 8.0 0.00 0.00 0.00 36 1014.7
20260905212404 38 122 3.2 8.0 0.00 0.00 0.00 37 1014.7
20260905212306 37 122 3.2 8.0 0.00 0.00 0.00 36 1014.7
20260905212205 37 122 4.8 9.7 0.00 0.00 0.00 36 1014.8
20260905212104 37 121 4.8 11.3 0.00 0.00 0.00 37 1014.8
20260905212005 37 121 4.8 11.3 0.00 0.00 0.00 36 1014.7
20260905211905 37 124 4.8 11.3 0.00 0.00 0.00 36 1014.7
20260905211805 37 122 4.8 11.3 0.00 0.00 0.00 36 1014.8
20260905211605 38 122 4.8 11.3 0.00 0.00 0.00 36 1014.7
20260905211404 38 125 4.8 14.5 0.00 0.00 0.00 36 1014.7
20260905211304 38 130 4.8 14.5 0.00 0.00 0.00 36 1014.7
20260905211204 38 131 4.8 14.5 0.00 0.00 0.00 37 1014.7
20260905211104 38 134 3.2 14.5 0.00 0.00 0.00 36 1014.7
20260905211004 38 135 3.2 14.5 0.00 0.00 0.00 36 1014.7
20260905210904 38 133 3.2 14.5 0.00 0.00 0.00 36 1014.7
20260905210804 38 136 3.2 14.5 0.00 0.00 0.00 37 1014.8
20260905210704 38 143 3.2 14.5 0.00 0.00 0.00 36 1014.8
20260905210604 38 146 3.2 14.5 0.00 0.00 0.00 36 1014.8
20260905210504 38 152 3.2 14.5 0.00 0.00 0.00 36 1014.8
20260905210404 38 142 3.2 8.0 0.00 0.00 0.00 37 1014.8
20260905210304 38 135 3.2 8.0 0.00 0.00 0.00 37 1014.9
20260905210104 38 132 3.2 11.3 0.00 0.00 0.00 37 1014.9
20260905210004 38 130 3.2 11.3 0.00 0.00 0.00 37 1014.9
20260905205904 38 128 3.2 11.3 0.00 0.00 0.00 37 1014.9
20260905205804 38 125 4.8 11.3 0.00 0.00 0.00 37 1014.9
20260905205704 38 122 4.8 11.3 0.00 0.00 0.00 37 1014.9
20260905205604 38 121 4.8 11.3 0.00 0.00 0.00 38 1014.9
20260905205504 37 116 4.8 11.3 0.00 0.00 0.00 38 1014.9
20260905205404 37 117 4.8 11.3 0.00 0.00 0.00 37 1014.9
20260905205306 38 115 4.8 11.3 0.00 0.00 0.00 37 1015.0
20260905205205 38 113 4.8 9.7 0.00 0.00 0.00 38 1015.0
20260905205105 37 112 4.8 9.7 0.00 0.00 0.00 38 1015.0
20260905205005 37 111 4.8 9.7 0.00 0.00 0.00 37 1015.0
20260905204905 38 112 4.8 9.7 0.00 0.00 0.00 38 1015.1
20260905204805 37 113 4.8 9.7 0.00 0.00 0.00 38 1015.1
20260905204705 37 114 4.8 9.7 0.00 0.00 0.00 38 1015.0
20260905204605 37 113 4.8 9.7 0.00 0.00 0.00 38 1015.0
20260905204505 37 117 4.8 9.7 0.00 0.00 0.00 38 1015.1
20260905204204 37 119 4.8 17.7 0.00 0.00 0.00 38 1015.2
20260905204104 37 118 6.4 17.7 0.00 0.00 0.00 39 1015.2
20260905204004 37 117 4.8 17.7 0.00 0.00 0.00 38 1015.2
20260905203904 37 116 4.8 17.7 0.00 0.00 0.00 38 1015.3
20260905203704 38 116 4.8 17.7 0.00 0.00 0.00 38 1015.3
20260905203604 38 120 4.8 17.7 0.00 0.00 0.00 38 1015.3
20260905203504 38 121 4.8 17.7 0.00 0.00 0.00 38 1015.3
20260905203404 38 121 4.8 17.7 0.00 0.00 0.00 37 1015.2
20260905203304 38 122 4.8 17.7 0.00 0.00 0.00 37 1015.3
20260905203205 38 128 3.2 9.7 0.00 0.00 0.00 38 1015.2
20260905203004 38 132 3.2 8.0 0.00 0.00 0.00 38 1015.3
20260905202904 38 132 3.2 8.0 0.00 0.00 0.00 38 1015.4
20260905202804 38 130 4.8 8.0 0.00 0.00 0.00 38 1015.4
20260905202704 38 130 4.8 8.0 0.00 0.00 0.00 38 1015.4
20260905202604 38 124 4.8 8.0 0.00 0.00 0.00 38 1015.5
20260905202504 38 122 3.2 11.3 0.00 0.00 0.00 38 1015.5
20260905202404 38 122 3.2 11.3 0.00 0.00 0.00 38 1015.5
20260905202306 38 121 3.2 11.3 0.00 0.00 0.00 39 1015.4
20260905202104 38 123 3.2 11.3 0.00 0.00 0.00 39 1015.5
20260905202004 38 124 3.2 11.3 0.00 0.00 0.00 39 1015.5
20260905201804 38 124 3.2 11.3 0.00 0.00 0.00 39 1015.5
20260905201604 38 124 3.2 11.3 0.00 0.00 0.00 39 1015.5
20260905201504 38 139 3.2 11.3 0.00 0.00 0.00 38 1015.6